Time,TemperatureF,DewpointF,PressureIn,WindDirection,WindDirectionDegrees,WindSpeedMPH,WindSpeedGustMPH,Humidity,HourlyPrecipIn,Conditions,Clouds,dailyrainin,SoftwareType,DateUTC
2013-01-12 00:00:00,68.2,66.4,30.18,South,173,0.0,0.0,94,0.00,,---,0.00,VWS V14.01,2013-01-12 05:00:00,
2013-01-12 00:01:00,68.1,66.3,30.18,South,173,0.0,0.0,94,0.00,,---,0.00,VWS V14.01,2013-01-12 05:01:00,
2013-01-12 00:03:00,68.1,66.0,30.18,South,173,1.0,1.0,93,0.00,,---,0.00,VWS V14.01,2013-01-12 05:03:00,
2013-01-12 00:05:00,68.1,66.3,30.18,South,173,0.0,2.0,94,0.00,,---,0.00,VWS V14.01,2013-01-12 05:05:00,
2013-01-12 00:06:00,68.1,66.3,30.18,South,173,0.0,0.0,94,0.00,,---,0.00,VWS V14.01,2013-01-12 05:06:00,
2013-01-12 00:08:00,68.1,66.3,30.18,South,173,0.0,0.0,94,0.00,,---,0.00,VWS V14.01,2013-01-12 05:08:00,
2013-01-12 00:10:00,68.1,66.0,30.18,South,173,0.0,0.0,93,0.00,,---,0.00,VWS V14.01,2013-01-12 05:10:00,
2013-01-12 00:11:00,68.1,66.0,30.18,South,173,0.0,0.0,93,0.00,,---,0.00,VWS V14.01,2013-01-12 05:11:00,
2013-01-12 00:13:00,68.0,65.9,30.17,East,91,1.0,5.0,93,0.00,,---,0.00,VWS V14.01,2013-01-12 05:13:00,
2013-01-12 00:15:00,68.0,65.9,30.17,East,90,0.0,5.0,93,0.00,,---,0.00,VWS V14.01,2013-01-12 05:15:00,
2013-01-12 00:17:00,68.0,65.9,30.17,East,90,0.0,1.0,93,0.00,,---,0.00,VWS V14.01,2013-01-12 05:17:00,
2013-01-12 00:18:00,68.0,65.9,30.17,East,90,1.0,1.0,93,0.00,,---,0.00,VWS V14.01,2013-01-12 05:18:00,
2013-01-12 00:19:00,67.9,65.8,30.17,East,90,1.0,1.0,93,0.00,,---,0.00,VWS V14.01,2013-01-12 05:19:00,
2013-01-12 00:20:00,67.9,65.8,30.17,East,86,1.0,3.0,93,0.00,,---,0.00,VWS V14.01,2013-01-12 05:20:00,
2013-01-12 00:23:00,67.9,65.8,30.17,East,86,0.0,1.0,93,0.00,,---,0.00,VWS V14.01,2013-01-12 05:23:00,
2013-01-12 00:24:00,67.9,65.8,30.17,East,86,1.0,1.0,93,0.00,,---,0.00,VWS V14.01,2013-01-12 05:24:00,
2013-01-12 00:25:00,67.9,65.8,30.17,East,86,0.0,1.0,93,0.00,,---,0.00,VWS V14.01,2013-01-12 05:25:00,
2013-01-12 00:28:00,67.9,65.8,30.17,East,86,0.0,2.0,93,0.00,,---,0.00,VWS V14.01,2013-01-12 05:28:00,
2013-01-12 00:29:00,67.9,65.8,30.17,East,86,0.0,2.0,93,0.00,,---,0.00,VWS V14.01,2013-01-12 05:29:00,
2013-01-12 00:30:00,67.9,65.8,30.17,East,86,0.0,2.0,93,0.00,,---,0.00,VWS V14.01,2013-01-12 05:30:00,
2013-01-12 00:31:00,67.9,65.8,30.17,East,86,0.0,2.0,93,0.00,,---,0.00,VWS V14.01,2013-01-12 05:31:00,
2013-01-12 00:32:00,67.8,65.7,30.17,East,86,0.0,1.0,93,0.00,,---,0.00,VWS V14.01,2013-01-12 05:32:00,
2013-01-12 00:33:00,67.8,65.7,30.17,East,86,0.0,1.0,93,0.00,,---,0.00,VWS V14.01,2013-01-12 05:33:00,
2013-01-12 00:34:00,67.9,65.8,30.17,East,86,0.0,1.0,93,0.00,,---,0.00,VWS V14.01,2013-01-12 05:34:00,
2013-01-12 00:35:00,67.8,65.7,30.17,East,86,0.0,1.0,93,0.00,,---,0.00,VWS V14.01,2013-01-12 05:35:00,
2013-01-12 00:36:00,67.8,65.7,30.17,East,86,1.0,1.0,93,0.00,,---,0.00,VWS V14.01,2013-01-12 05:36:00,
2013-01-12 00:38:00,67.8,65.7,30.17,East,98,2.0,2.0,93,0.00,,---,0.00,VWS V14.01,2013-01-12 05:38:00,
2013-01-12 00:40:00,67.8,65.7,30.17,East,99,0.0,3.0,93,0.00,,---,0.00,VWS V14.01,2013-01-12 05:40:00,
2013-01-12 00:41:00,67.8,65.7,30.17,East,88,2.0,2.0,93,0.00,,---,0.00,VWS V14.01,2013-01-12 05:41:00,
2013-01-12 00:43:00,67.8,65.7,30.17,East,88,0.0,2.0,93,0.00,,---,0.00,VWS V14.01,2013-01-12 05:43:00,
2013-01-12 00:45:00,67.8,65.7,30.17,East,88,0.0,2.0,93,0.00,,---,0.00,VWS V14.01,2013-01-12 05:45:00,
2013-01-12 00:47:00,67.8,65.7,30.17,ESE,123,0.0,2.0,93,0.00,,---,0.00,VWS V14.01,2013-01-12 05:47:00,
2013-01-12 00:48:00,67.8,65.7,30.17,ESE,123,1.0,2.0,93,0.00,,---,0.00,VWS V14.01,2013-01-12 05:48:00,
2013-01-12 00:49:00,67.8,65.7,30.17,ESE,113,2.0,3.0,93,0.00,,---,0.00,VWS V14.01,2013-01-12 05:49:00,
2013-01-12 00:50:00,67.7,65.6,30.17,East,95,0.0,3.0,93,0.00,,---,0.00,VWS V14.01,2013-01-12 05:50:00,
2013-01-12 00:51:00,67.7,65.6,30.17,East,95,0.0,0.0,93,0.00,,---,0.00,VWS V14.01,2013-01-12 05:51:00,
2013-01-12 00:52:00,67.7,65.6,30.17,East,98,2.0,2.0,93,0.00,,---,0.00,VWS V14.01,2013-01-12 05:52:00,
2013-01-12 00:54:00,67.7,65.6,30.16,East,85,1.0,2.0,93,0.00,,---,0.00,VWS V14.01,2013-01-12 05:54:00,
2013-01-12 00:55:00,67.7,65.6,30.16,East,85,1.0,2.0,93,0.00,,---,0.00,VWS V14.01,2013-01-12 05:55:00,
2013-01-12 00:57:00,67.7,65.6,30.16,East,85,1.0,1.0,93,0.00,,---,0.00,VWS V14.01,2013-01-12 05:57:00,
2013-01-12 00:58:00,67.7,65.6,30.16,East,85,1.0,1.0,93,0.00,,---,0.00,VWS V14.01,2013-01-12 05:58:00,
2013-01-12 00:59:00,67.7,65.6,30.16,East,85,0.0,1.0,93,0.00,,---,0.00,VWS V14.01,2013-01-12 05:59:00,
2013-01-12 01:00:00,67.7,65.6,30.16,ENE,70,3.0,4.0,93,0.00,,---,0.00,VWS V14.01,2013-01-12 06:00:00,
2013-01-12 01:02:00,67.8,65.7,30.16,ENE,74,1.0,2.0,93,0.00,,---,0.00,VWS V14.01,2013-01-12 06:02:00,
2013-01-12 01:03:00,67.8,65.7,30.16,ESE,107,1.0,2.0,93,0.00,,---,0.00,VWS V14.01,2013-01-12 06:03:00,
2013-01-12 01:05:00,67.8,65.7,30.16,SSE,149,0.0,4.0,93,0.00,,---,0.00,VWS V14.01,2013-01-12 06:05:00,
2013-01-12 01:06:00,67.8,65.7,30.16,NE,50,2.0,4.0,93,0.00,,---,0.00,VWS V14.01,2013-01-12 06:06:00,
2013-01-12 01:07:00,67.8,65.4,30.16,ENE,57,1.0,3.0,92,0.00,,---,0.00,VWS V14.01,2013-01-12 06:07:00,
2013-01-12 01:09:00,67.8,65.4,30.16,East,92,1.0,3.0,92,0.00,,---,0.00,VWS V14.01,2013-01-12 06:09:00,
2013-01-12 01:10:00,67.8,65.4,30.16,East,92,0.0,3.0,92,0.00,,---,0.00,VWS V14.01,2013-01-12 06:10:00,
2013-01-12 01:11:00,67.8,65.4,30.16,East,92,0.0,1.0,92,0.00,,---,0.00,VWS V14.01,2013-01-12 06:11:00,
2013-01-12 01:12:00,67.8,65.4,30.16,East,92,1.0,1.0,92,0.00,,---,0.00,VWS V14.01,2013-01-12 06:12:00,
2013-01-12 01:15:00,67.7,65.3,30.16,SE,128,2.0,4.0,92,0.00,,---,0.00,VWS V14.01,2013-01-12 06:15:00,
2013-01-12 01:16:00,67.7,65.3,30.16,ENE,72,1.0,4.0,92,0.00,,---,0.00,VWS V14.01,2013-01-12 06:16:00,
2013-01-12 01:17:00,67.7,65.3,30.16,East,99,1.0,4.0,92,0.00,,---,0.00,VWS V14.01,2013-01-12 06:17:00,
2013-01-12 01:18:00,67.7,65.3,30.16,East,85,0.0,4.0,92,0.00,,---,0.00,VWS V14.01,2013-01-12 06:18:00,
2013-01-12 01:20:00,67.7,65.3,30.16,East,90,1.0,4.0,92,0.00,,---,0.00,VWS V14.01,2013-01-12 06:20:00,
2013-01-12 01:21:00,67.7,65.3,30.16,East,90,1.0,1.0,92,0.00,,---,0.00,VWS V14.01,2013-01-12 06:21:00,
2013-01-12 01:22:00,67.7,65.3,30.16,East,90,1.0,2.0,92,0.00,,---,0.00,VWS V14.01,2013-01-12 06:22:00,
2013-01-12 01:23:00,67.7,65.3,30.16,East,90,1.0,2.0,92,0.00,,---,0.00,VWS V14.01,2013-01-12 06:23:00,
2013-01-12 01:25:00,67.7,65.3,30.16,East,90,0.0,2.0,92,0.00,,---,0.00,VWS V14.01,2013-01-12 06:25:00,
2013-01-12 01:26:00,67.7,65.3,30.16,East,90,0.0,2.0,92,0.00,,---,0.00,VWS V14.01,2013-01-12 06:26:00,
2013-01-12 01:29:00,67.7,65.3,30.16,East,82,1.0,2.0,92,0.00,,---,0.00,VWS V14.01,2013-01-12 06:29:00,
2013-01-12 01:30:00,67.7,65.3,30.16,East,95,2.0,3.0,92,0.00,,---,0.00,VWS V14.01,2013-01-12 06:30:00,
2013-01-12 01:32:00,67.6,65.2,30.16,East,92,1.0,2.0,92,0.00,,---,0.00,VWS V14.01,2013-01-12 06:32:00,
2013-01-12 01:34:00,67.6,65.2,30.16,East,92,1.0,2.0,92,0.00,,---,0.00,VWS V14.01,2013-01-12 06:34:00,
2013-01-12 01:35:00,67.6,65.2,30.16,East,92,0.0,3.0,92,0.00,,---,0.00,VWS V14.01,2013-01-12 06:35:00,
2013-01-12 01:36:00,67.6,65.2,30.16,East,92,0.0,1.0,92,0.00,,---,0.00,VWS V14.01,2013-01-12 06:36:00,
2013-01-12 01:38:00,67.6,65.5,30.15,East,92,1.0,1.0,93,0.00,,---,0.00,VWS V14.01,2013-01-12 06:38:00,
2013-01-12 01:39:00,67.6,65.5,30.15,East,92,0.0,1.0,93,0.00,,---,0.00,VWS V14.01,2013-01-12 06:39:00,
2013-01-12 01:40:00,67.6,65.5,30.15,East,92,1.0,1.0,93,0.00,,---,0.00,VWS V14.01,2013-01-12 06:40:00,
2013-01-12 01:41:00,67.5,65.4,30.16,ESE,103,1.0,2.0,93,0.00,,---,0.00,VWS V14.01,2013-01-12 06:41:00,
2013-01-12 01:44:00,67.5,65.4,30.16,ENE,75,0.0,2.0,93,0.00,,---,0.00,VWS V14.01,2013-01-12 06:44:00,
2013-01-12 01:45:00,67.4,65.3,30.16,ENE,75,0.0,2.0,93,0.00,,---,0.00,VWS V14.01,2013-01-12 06:45:00,
2013-01-12 01:46:00,67.4,65.3,30.16,ENE,75,1.0,1.0,93,0.00,,---,0.00,VWS V14.01,2013-01-12 06:46:00,
2013-01-12 01:47:00,67.4,65.3,30.16,ENE,75,0.0,1.0,93,0.00,,---,0.00,VWS V14.01,2013-01-12 06:47:00,
2013-01-12 01:49:00,67.4,65.3,30.16,East,100,0.0,3.0,93,0.00,,---,0.00,VWS V14.01,2013-01-12 06:49:00,
2013-01-12 01:50:00,67.3,65.2,30.16,East,100,0.0,3.0,93,0.00,,---,0.00,VWS V14.01,2013-01-12 06:50:00,
2013-01-12 01:51:00,67.3,65.2,30.16,East,100,0.0,3.0,93,0.00,,---,0.00,VWS V14.01,2013-01-12 06:51:00,
2013-01-12 01:52:00,67.3,65.2,30.16,East,100,1.0,1.0,93,0.00,,---,0.00,VWS V14.01,2013-01-12 06:52:00,
2013-01-12 01:53:00,67.3,65.2,30.16,East,100,0.0,1.0,93,0.00,,---,0.00,VWS V14.01,2013-01-12 06:53:00,
2013-01-12 01:54:00,67.2,65.1,30.16,East,100,0.0,1.0,93,0.00,,---,0.00,VWS V14.01,2013-01-12 06:54:00,
2013-01-12 01:55:00,67.2,65.1,30.16,East,100,1.0,1.0,93,0.00,,---,0.00,VWS V14.01,2013-01-12 06:55:00,
2013-01-12 01:56:00,67.2,65.1,30.16,East,100,1.0,1.0,93,0.00,,---,0.00,VWS V14.01,2013-01-12 06:56:00,
2013-01-12 01:58:00,67.2,65.1,30.15,ENE,78,2.0,2.0,93,0.00,,---,0.00,VWS V14.01,2013-01-12 06:58:00,
2013-01-12 02:00:00,67.1,65.0,30.15,ENE,78,0.0,2.0,93,0.00,,---,0.00,VWS V14.01,2013-01-12 07:00:00,
2013-01-12 02:01:00,67.1,65.0,30.15,ENE,78,0.0,0.0,93,0.00,,---,0.00,VWS V14.01,2013-01-12 07:01:00,
2013-01-12 02:03:00,67.0,64.9,30.15,ENE,78,1.0,1.0,93,0.00,,---,0.00,VWS V14.01,2013-01-12 07:03:00,
2013-01-12 02:05:00,67.0,64.9,30.15,ENE,78,1.0,2.0,93,0.00,,---,0.00,VWS V14.01,2013-01-12 07:05:00,
2013-01-12 02:06:00,67.0,64.9,30.15,ENE,78,0.0,2.0,93,0.00,,---,0.00,VWS V14.01,2013-01-12 07:06:00,
2013-01-12 02:08:00,66.9,64.8,30.15,ENE,78,0.0,2.0,93,0.00,,---,0.00,VWS V14.01,2013-01-12 07:08:00,
2013-01-12 02:10:00,66.8,64.7,30.15,ENE,78,0.0,2.0,93,0.00,,---,0.00,VWS V14.01,2013-01-12 07:10:00,
2013-01-12 02:11:00,66.8,64.7,30.15,ENE,78,0.0,0.0,93,0.00,,---,0.00,VWS V14.01,2013-01-12 07:11:00,
2013-01-12 02:15:00,66.7,64.9,30.15,ESE,112,0.0,1.0,94,0.00,,---,0.00,VWS V14.01,2013-01-12 07:15:00,
2013-01-12 02:16:00,66.7,64.9,30.15,ESE,112,0.0,0.0,94,0.00,,---,0.00,VWS V14.01,2013-01-12 07:16:00,
2013-01-12 02:20:00,66.5,64.4,30.15,ESE,112,0.0,0.0,93,0.00,,---,0.00,VWS V14.01,2013-01-12 07:20:00,
2013-01-12 02:21:00,66.5,64.4,30.15,ESE,112,0.0,0.0,93,0.00,,---,0.00,VWS V14.01,2013-01-12 07:21:00,
2013-01-12 02:22:00,66.5,64.7,30.15,East,79,1.0,1.0,94,0.00,,---,0.00,VWS V14.01,2013-01-12 07:22:00,
2013-01-12 02:25:00,66.4,64.6,30.15,East,79,0.0,1.0,94,0.00,,---,0.00,VWS V14.01,2013-01-12 07:25:00,
2013-01-12 02:27:00,66.3,64.5,30.15,East,79,0.0,0.0,94,0.00,,---,0.00,VWS V14.01,2013-01-12 07:27:00,
2013-01-12 02:28:00,66.3,64.5,30.15,ENE,76,1.0,2.0,94,0.00,,---,0.00,VWS V14.01,2013-01-12 07:28:00,
2013-01-12 02:30:00,66.3,64.5,30.15,ENE,76,1.0,2.0,94,0.00,,---,0.00,VWS V14.01,2013-01-12 07:30:00,
2013-01-12 02:33:00,66.2,64.4,30.15,ENE,76,0.0,2.0,94,0.00,,---,0.00,VWS V14.01,2013-01-12 07:33:00,
2013-01-12 02:34:00,66.2,64.4,30.15,ENE,76,0.0,2.0,94,0.00,,---,0.00,VWS V14.01,2013-01-12 07:34:00,
2013-01-12 02:35:00,66.2,64.4,30.15,ENE,76,0.0,2.0,94,0.00,,---,0.00,VWS V14.01,2013-01-12 07:35:00,
2013-01-12 02:36:00,66.2,64.4,30.15,ENE,76,0.0,2.0,94,0.00,,---,0.00,VWS V14.01,2013-01-12 07:36:00,
2013-01-12 02:38:00,66.1,64.3,30.15,ENE,76,0.0,1.0,94,0.00,,---,0.00,VWS V14.01,2013-01-12 07:38:00,
2013-01-12 02:39:00,66.1,64.3,30.15,ENE,76,0.0,1.0,94,0.00,,---,0.00,VWS V14.01,2013-01-12 07:39:00,
2013-01-12 02:40:00,66.0,64.2,30.14,ENE,76,0.0,1.0,94,0.00,,---,0.00,VWS V14.01,2013-01-12 07:40:00,
2013-01-12 02:44:00,66.0,64.2,30.14,ENE,76,1.0,1.0,94,0.00,,---,0.00,VWS V14.01,2013-01-12 07:44:00,
2013-01-12 02:45:00,65.9,64.1,30.14,ENE,76,0.0,2.0,94,0.00,,---,0.00,VWS V14.01,2013-01-12 07:45:00,
2013-01-12 02:46:00,65.9,64.1,30.14,ENE,76,0.0,2.0,94,0.00,,---,0.00,VWS V14.01,2013-01-12 07:46:00,
2013-01-12 02:49:00,65.9,64.4,30.14,ENE,76,0.0,1.0,95,0.00,,---,0.00,VWS V14.01,2013-01-12 07:49:00,
2013-01-12 02:50:00,65.9,64.4,30.14,ENE,78,0.0,1.0,95,0.00,,---,0.00,VWS V14.01,2013-01-12 07:50:00,
2013-01-12 02:51:00,65.9,64.4,30.14,ENE,78,0.0,1.0,95,0.00,,---,0.00,VWS V14.01,2013-01-12 07:51:00,
2013-01-12 02:55:00,65.9,64.4,30.14,East,98,1.0,3.0,95,0.00,,---,0.00,VWS V14.01,2013-01-12 07:55:00,
2013-01-12 02:56:00,65.9,64.4,30.14,East,98,0.0,0.0,95,0.00,,---,0.00,VWS V14.01,2013-01-12 07:56:00,
2013-01-12 03:00:00,65.9,64.4,30.14,East,98,0.0,1.0,95,0.00,,---,0.00,VWS V14.01,2013-01-12 08:00:00,
2013-01-12 03:01:00,65.9,64.4,30.14,East,98,1.0,1.0,95,0.00,,---,0.00,VWS V14.01,2013-01-12 08:01:00,
2013-01-12 03:02:00,65.9,64.4,30.14,East,98,1.0,1.0,95,0.00,,---,0.00,VWS V14.01,2013-01-12 08:02:00,
2013-01-12 03:03:00,65.9,64.4,30.14,ENE,75,0.0,2.0,95,0.00,,---,0.00,VWS V14.01,2013-01-12 08:03:00,
2013-01-12 03:05:00,65.9,64.4,30.14,ENE,75,0.0,2.0,95,0.00,,---,0.00,VWS V14.01,2013-01-12 08:05:00,
2013-01-12 03:06:00,65.9,64.4,30.15,ENE,75,0.0,0.0,95,0.00,,---,0.00,VWS V14.01,2013-01-12 08:06:00,
2013-01-12 03:07:00,65.8,64.3,30.15,ENE,75,0.0,1.0,95,0.00,,---,0.00,VWS V14.01,2013-01-12 08:07:00,
2013-01-12 03:08:00,65.8,64.3,30.15,ENE,75,1.0,1.0,95,0.00,,---,0.00,VWS V14.01,2013-01-12 08:08:00,
2013-01-12 03:10:00,65.8,64.3,30.15,ENE,74,1.0,2.0,95,0.00,,---,0.00,VWS V14.01,2013-01-12 08:10:00,
2013-01-12 03:12:00,65.8,64.3,30.15,ENE,74,0.0,2.0,95,0.00,,---,0.00,VWS V14.01,2013-01-12 08:12:00,
2013-01-12 03:13:00,65.8,64.3,30.15,ENE,74,0.0,2.0,95,0.00,,---,0.00,VWS V14.01,2013-01-12 08:13:00,
2013-01-12 03:15:00,65.8,64.3,30.14,ENE,74,0.0,2.0,95,0.00,,---,0.00,VWS V14.01,2013-01-12 08:15:00,
2013-01-12 03:17:00,65.8,64.3,30.14,ENE,74,0.0,0.0,95,0.00,,---,0.00,VWS V14.01,2013-01-12 08:17:00,
2013-01-12 03:19:00,65.7,64.2,30.14,ENE,74,1.0,1.0,95,0.00,,---,0.00,VWS V14.01,2013-01-12 08:19:00,
2013-01-12 03:20:00,65.7,64.2,30.15,ENE,74,0.0,1.0,95,0.00,,---,0.00,VWS V14.01,2013-01-12 08:20:00,
2013-01-12 03:21:00,65.7,64.2,30.15,ENE,74,0.0,0.0,95,0.00,,---,0.00,VWS V14.01,2013-01-12 08:21:00,
2013-01-12 03:22:00,65.7,64.2,30.14,ENE,74,0.0,0.0,95,0.00,,---,0.00,VWS V14.01,2013-01-12 08:22:00,
2013-01-12 03:24:00,65.6,64.1,30.14,ENE,74,0.0,0.0,95,0.00,,---,0.00,VWS V14.01,2013-01-12 08:24:00,
2013-01-12 03:25:00,65.6,64.1,30.14,ENE,74,0.0,1.0,95,0.00,,---,0.00,VWS V14.01,2013-01-12 08:25:00,
2013-01-12 03:27:00,65.6,64.1,30.15,ENE,74,1.0,2.0,95,0.00,,---,0.00,VWS V14.01,2013-01-12 08:27:00,
2013-01-12 03:29:00,65.6,64.1,30.14,ENE,74,0.0,2.0,95,0.00,,---,0.00,VWS V14.01,2013-01-12 08:29:00,
2013-01-12 03:30:00,65.6,64.1,30.14,ENE,74,0.0,2.0,95,0.00,,---,0.00,VWS V14.01,2013-01-12 08:30:00,
2013-01-12 03:31:00,65.6,64.1,30.14,ENE,74,0.0,0.0,95,0.00,,---,0.00,VWS V14.01,2013-01-12 08:31:00,
2013-01-12 03:33:00,65.5,64.0,30.14,ENE,74,0.0,1.0,95,0.00,,---,0.00,VWS V14.01,2013-01-12 08:33:00,
2013-01-12 03:35:00,65.5,64.0,30.14,ENE,74,0.0,1.0,95,0.00,,---,0.00,VWS V14.01,2013-01-12 08:35:00,
2013-01-12 03:36:00,65.4,63.9,30.14,ENE,74,0.0,0.0,95,0.00,,---,0.00,VWS V14.01,2013-01-12 08:36:00,
2013-01-12 03:39:00,65.4,63.9,30.14,ENE,74,0.0,1.0,95,0.00,,---,0.00,VWS V14.01,2013-01-12 08:39:00,
2013-01-12 03:40:00,65.4,63.9,30.14,ENE,74,0.0,1.0,95,0.00,,---,0.00,VWS V14.01,2013-01-12 08:40:00,
2013-01-12 03:41:00,65.4,63.9,30.14,ENE,74,0.0,0.0,95,0.00,,---,0.00,VWS V14.01,2013-01-12 08:41:00,
2013-01-12 03:42:00,65.4,63.9,30.14,ENE,74,0.0,0.0,95,0.00,,---,0.00,VWS V14.01,2013-01-12 08:42:00,
2013-01-12 03:45:00,65.3,63.8,30.14,ENE,74,0.0,1.0,95,0.00,,---,0.00,VWS V14.01,2013-01-12 08:45:00,
2013-01-12 03:46:00,65.3,63.8,30.14,ENE,74,0.0,0.0,95,0.00,,---,0.00,VWS V14.01,2013-01-12 08:46:00,
2013-01-12 03:47:00,65.3,63.8,30.14,ENE,74,0.0,0.0,95,0.00,,---,0.00,VWS V14.01,2013-01-12 08:47:00,
2013-01-12 03:50:00,65.2,63.7,30.14,ENE,74,0.0,0.0,95,0.00,,---,0.00,VWS V14.01,2013-01-12 08:50:00,
2013-01-12 03:51:00,65.2,63.7,30.14,ENE,74,0.0,0.0,95,0.00,,---,0.00,VWS V14.01,2013-01-12 08:51:00,
2013-01-12 03:52:00,65.2,63.7,30.14,ENE,74,0.0,0.0,95,0.00,,---,0.00,VWS V14.01,2013-01-12 08:52:00,
2013-01-12 03:53:00,65.1,63.6,30.14,ENE,74,0.0,0.0,95,0.00,,---,0.00,VWS V14.01,2013-01-12 08:53:00,
2013-01-12 03:55:00,65.0,63.5,30.14,ENE,74,0.0,0.0,95,0.00,,---,0.00,VWS V14.01,2013-01-12 08:55:00,
2013-01-12 03:57:00,65.0,63.5,30.14,ENE,74,0.0,0.0,95,0.00,,---,0.00,VWS V14.01,2013-01-12 08:57:00,
2013-01-12 03:59:00,64.9,63.4,30.14,ENE,74,0.0,0.0,95,0.00,,---,0.00,VWS V14.01,2013-01-12 08:59:00,
2013-01-12 04:00:00,64.9,63.4,30.14,ENE,74,0.0,0.0,95,0.00,,---,0.00,VWS V14.01,2013-01-12 09:00:00,
2013-01-12 04:01:00,64.9,63.4,30.14,ENE,74,0.0,0.0,95,0.00,,---,0.00,VWS V14.01,2013-01-12 09:01:00,
2013-01-12 04:03:00,64.8,63.3,30.14,ENE,74,0.0,0.0,95,0.00,,---,0.00,VWS V14.01,2013-01-12 09:03:00,
2013-01-12 04:05:00,64.8,63.3,30.14,ENE,74,0.0,0.0,95,0.00,,---,0.00,VWS V14.01,2013-01-12 09:05:00,
2013-01-12 04:06:00,64.7,63.2,30.14,ENE,74,0.0,0.0,95,0.00,,---,0.00,VWS V14.01,2013-01-12 09:06:00,
2013-01-12 04:08:00,64.7,63.5,30.14,ENE,74,0.0,0.0,96,0.00,,---,0.00,VWS V14.01,2013-01-12 09:08:00,
2013-01-12 04:09:00,64.7,63.5,30.13,ENE,74,0.0,0.0,96,0.00,,---,0.00,VWS V14.01,2013-01-12 09:09:00,
2013-01-12 04:10:00,64.7,63.5,30.13,ENE,74,0.0,0.0,96,0.00,,---,0.00,VWS V14.01,2013-01-12 09:10:00,
2013-01-12 04:11:00,64.6,63.4,30.13,ENE,74,0.0,0.0,96,0.00,,---,0.00,VWS V14.01,2013-01-12 09:11:00,
2013-01-12 04:13:00,64.6,63.4,30.13,ENE,74,0.0,0.0,96,0.00,,---,0.00,VWS V14.01,2013-01-12 09:13:00,
2013-01-12 04:14:00,64.6,63.4,30.13,ENE,74,0.0,0.0,96,0.00,,---,0.00,VWS V14.01,2013-01-12 09:14:00,
2013-01-12 04:15:00,64.6,63.4,30.13,ENE,74,0.0,0.0,96,0.00,,---,0.00,VWS V14.01,2013-01-12 09:15:00,
2013-01-12 04:17:00,64.5,63.3,30.13,ENE,74,0.0,0.0,96,0.00,,---,0.00,VWS V14.01,2013-01-12 09:17:00,
2013-01-12 04:19:00,64.5,63.3,30.13,ENE,74,0.0,0.0,96,0.00,,---,0.00,VWS V14.01,2013-01-12 09:19:00,
2013-01-12 04:20:00,64.4,63.2,30.13,ENE,74,0.0,0.0,96,0.00,,---,0.00,VWS V14.01,2013-01-12 09:20:00,
2013-01-12 04:23:00,64.3,63.1,30.13,ENE,74,0.0,0.0,96,0.00,,---,0.00,VWS V14.01,2013-01-12 09:23:00,
2013-01-12 04:24:00,64.3,63.1,30.13,ENE,74,0.0,0.0,96,0.00,,---,0.00,VWS V14.01,2013-01-12 09:24:00,
2013-01-12 04:25:00,64.3,63.1,30.13,ENE,74,0.0,0.0,96,0.00,,---,0.00,VWS V14.01,2013-01-12 09:25:00,
2013-01-12 04:26:00,64.3,63.1,30.13,ENE,74,0.0,0.0,96,0.00,,---,0.00,VWS V14.01,2013-01-12 09:26:00,
2013-01-12 04:29:00,64.2,63.0,30.13,ENE,74,0.0,0.0,96,0.00,,---,0.00,VWS V14.01,2013-01-12 09:29:00,
2013-01-12 04:30:00,64.1,62.9,30.13,ENE,74,0.0,0.0,96,0.00,,---,0.00,VWS V14.01,2013-01-12 09:30:00,
2013-01-12 04:31:00,64.1,62.9,30.13,ENE,74,0.0,0.0,96,0.00,,---,0.00,VWS V14.01,2013-01-12 09:31:00,
2013-01-12 04:32:00,64.1,62.9,30.13,ENE,74,0.0,0.0,96,0.00,,---,0.00,VWS V14.01,2013-01-12 09:32:00,
2013-01-12 04:35:00,64.0,62.8,30.13,ENE,74,0.0,0.0,96,0.00,,---,0.00,VWS V14.01,2013-01-12 09:35:00,
2013-01-12 04:36:00,64.0,62.8,30.13,ENE,74,0.0,0.0,96,0.00,,---,0.00,VWS V14.01,2013-01-12 09:36:00,
2013-01-12 04:37:00,64.0,62.8,30.13,ENE,74,0.0,0.0,96,0.00,,---,0.00,VWS V14.01,2013-01-12 09:37:00,
2013-01-12 04:40:00,63.9,62.7,30.13,ENE,74,0.0,0.0,96,0.00,,---,0.00,VWS V14.01,2013-01-12 09:40:00,
2013-01-12 04:41:00,63.9,62.7,30.13,ENE,74,0.0,0.0,96,0.00,,---,0.00,VWS V14.01,2013-01-12 09:41:00,
2013-01-12 04:43:00,63.9,62.7,30.13,ENE,74,0.0,0.0,96,0.00,,---,0.00,VWS V14.01,2013-01-12 09:43:00,
2013-01-12 04:44:00,63.9,62.7,30.13,ENE,74,0.0,0.0,96,0.00,,---,0.00,VWS V14.01,2013-01-12 09:44:00,
2013-01-12 04:45:00,63.8,62.6,30.13,ENE,74,0.0,0.0,96,0.00,,---,0.00,VWS V14.01,2013-01-12 09:45:00,
2013-01-12 04:47:00,63.8,62.6,30.14,ENE,74,0.0,0.0,96,0.00,,---,0.00,VWS V14.01,2013-01-12 09:47:00,
2013-01-12 04:48:00,63.8,62.6,30.14,ENE,74,0.0,0.0,96,0.00,,---,0.00,VWS V14.01,2013-01-12 09:48:00,
2013-01-12 04:50:00,63.7,62.5,30.14,ENE,74,0.0,0.0,96,0.00,,---,0.00,VWS V14.01,2013-01-12 09:50:00,
2013-01-12 04:51:00,63.7,62.5,30.14,ENE,74,0.0,0.0,96,0.00,,---,0.00,VWS V14.01,2013-01-12 09:51:00,
2013-01-12 04:52:00,63.7,62.5,30.14,ENE,74,0.0,0.0,96,0.00,,---,0.00,VWS V14.01,2013-01-12 09:52:00,
2013-01-12 04:54:00,63.6,62.4,30.14,ENE,74,0.0,0.0,96,0.00,,---,0.00,VWS V14.01,2013-01-12 09:54:00,
2013-01-12 04:55:00,63.6,62.4,30.14,ENE,74,0.0,0.0,96,0.00,,---,0.00,VWS V14.01,2013-01-12 09:55:00,
2013-01-12 04:56:00,63.6,62.4,30.14,ENE,74,0.0,0.0,96,0.00,,---,0.00,VWS V14.01,2013-01-12 09:56:00,
2013-01-12 04:57:00,63.5,62.3,30.13,ENE,74,0.0,1.0,96,0.00,,---,0.00,VWS V14.01,2013-01-12 09:57:00,
2013-01-12 04:59:00,63.5,62.3,30.13,ENE,74,0.0,1.0,96,0.00,,---,0.00,VWS V14.01,2013-01-12 09:59:00,
2013-01-12 05:00:00,63.5,62.3,30.14,ENE,74,0.0,1.0,96,0.00,,---,0.00,VWS V14.01,2013-01-12 10:00:00,
2013-01-12 05:01:00,63.5,62.3,30.13,ENE,74,0.0,0.0,96,0.00,,---,0.00,VWS V14.01,2013-01-12 10:01:00,
2013-01-12 05:04:00,63.4,62.2,30.13,ENE,74,0.0,0.0,96,0.00,,---,0.00,VWS V14.01,2013-01-12 10:04:00,
2013-01-12 05:05:00,63.4,62.2,30.13,ENE,74,0.0,0.0,96,0.00,,---,0.00,VWS V14.01,2013-01-12 10:05:00,
2013-01-12 05:06:00,63.4,62.5,30.13,ENE,74,0.0,0.0,97,0.00,,---,0.00,VWS V14.01,2013-01-12 10:06:00,
2013-01-12 05:07:00,63.4,62.5,30.13,ENE,74,0.0,0.0,97,0.00,,---,0.00,VWS V14.01,2013-01-12 10:07:00,
2013-01-12 05:10:00,63.4,62.5,30.13,ENE,74,0.0,0.0,97,0.00,,---,0.00,VWS V14.01,2013-01-12 10:10:00,
2013-01-12 05:11:00,63.4,62.5,30.13,ENE,74,0.0,0.0,97,0.00,,---,0.00,VWS V14.01,2013-01-12 10:11:00,
2013-01-12 05:13:00,63.4,62.5,30.13,ENE,74,0.0,0.0,97,0.00,,---,0.00,VWS V14.01,2013-01-12 10:13:00,
2013-01-12 05:15:00,63.4,62.5,30.13,ENE,74,0.0,0.0,97,0.00,,---,0.00,VWS V14.01,2013-01-12 10:15:00,
2013-01-12 05:16:00,63.5,62.6,30.13,ENE,74,0.0,0.0,97,0.00,,---,0.00,VWS V14.01,2013-01-12 10:16:00,
2013-01-12 05:18:00,63.6,62.7,30.13,ENE,74,0.0,0.0,97,0.00,,---,0.00,VWS V14.01,2013-01-12 10:18:00,
2013-01-12 05:20:00,63.6,62.7,30.13,ENE,74,0.0,0.0,97,0.00,,---,0.00,VWS V14.01,2013-01-12 10:20:00,
2013-01-12 05:21:00,63.6,62.7,30.13,ENE,74,0.0,0.0,97,0.00,,---,0.00,VWS V14.01,2013-01-12 10:21:00,
2013-01-12 05:23:00,63.6,62.7,30.13,ENE,74,0.0,0.0,97,0.00,,---,0.00,VWS V14.01,2013-01-12 10:23:00,
2013-01-12 05:24:00,63.5,62.6,30.13,ENE,74,0.0,0.0,97,0.00,,---,0.00,VWS V14.01,2013-01-12 10:24:00,
2013-01-12 05:25:00,63.5,62.6,30.13,ENE,74,0.0,0.0,97,0.00,,---,0.00,VWS V14.01,2013-01-12 10:25:00,
2013-01-12 05:26:00,63.5,62.6,30.13,ENE,74,0.0,0.0,97,0.00,,---,0.00,VWS V14.01,2013-01-12 10:26:00,
2013-01-12 05:27:00,63.5,62.6,30.13,ENE,74,0.0,0.0,97,0.00,,---,0.00,VWS V14.01,2013-01-12 10:27:00,
2013-01-12 05:28:00,63.5,62.6,30.13,ENE,74,0.0,0.0,97,0.00,,---,0.00,VWS V14.01,2013-01-12 10:28:00,
2013-01-12 05:30:00,63.5,62.6,30.13,ENE,74,0.0,0.0,97,0.00,,---,0.00,VWS V14.01,2013-01-12 10:30:00,
2013-01-12 05:31:00,63.5,62.6,30.13,ENE,74,0.0,0.0,97,0.00,,---,0.00,VWS V14.01,2013-01-12 10:31:00,
2013-01-12 05:32:00,63.5,62.6,30.13,ENE,74,0.0,0.0,97,0.00,,---,0.00,VWS V14.01,2013-01-12 10:32:00,
2013-01-12 05:33:00,63.5,62.6,30.13,ENE,74,0.0,1.0,97,0.00,,---,0.00,VWS V14.01,2013-01-12 10:33:00,
2013-01-12 05:35:00,63.6,62.7,30.13,ENE,74,0.0,1.0,97,0.00,,---,0.00,VWS V14.01,2013-01-12 10:35:00,
2013-01-12 05:37:00,63.6,62.7,30.13,ENE,74,0.0,0.0,97,0.00,,---,0.00,VWS V14.01,2013-01-12 10:37:00,
2013-01-12 05:38:00,63.7,62.8,30.13,ENE,74,0.0,0.0,97,0.00,,---,0.00,VWS V14.01,2013-01-12 10:38:00,
2013-01-12 05:39:00,63.7,62.8,30.13,ENE,74,0.0,0.0,97,0.00,,---,0.00,VWS V14.01,2013-01-12 10:39:00,
2013-01-12 05:40:00,63.8,62.9,30.13,ENE,74,0.0,1.0,97,0.00,,---,0.00,VWS V14.01,2013-01-12 10:40:00,
2013-01-12 05:41:00,63.8,62.9,30.13,ENE,74,0.0,1.0,97,0.00,,---,0.00,VWS V14.01,2013-01-12 10:41:00,
2013-01-12 05:42:00,63.8,62.9,30.13,ENE,74,0.0,0.0,97,0.00,,---,0.00,VWS V14.01,2013-01-12 10:42:00,
2013-01-12 05:43:00,63.8,62.9,30.13,ENE,74,0.0,1.0,97,0.00,,---,0.00,VWS V14.01,2013-01-12 10:43:00,
2013-01-12 05:44:00,63.8,62.9,30.13,ENE,74,1.0,1.0,97,0.00,,---,0.00,VWS V14.01,2013-01-12 10:44:00,
2013-01-12 05:45:00,63.8,62.9,30.13,ENE,74,0.0,1.0,97,0.00,,---,0.00,VWS V14.01,2013-01-12 10:45:00,
2013-01-12 05:48:00,63.8,62.9,30.13,ENE,74,0.0,0.0,97,0.00,,---,0.00,VWS V14.01,2013-01-12 10:48:00,
2013-01-12 05:49:00,63.9,63.0,30.13,ENE,74,0.0,0.0,97,0.00,,---,0.00,VWS V14.01,2013-01-12 10:49:00,
2013-01-12 05:50:00,63.8,62.9,30.13,ENE,74,0.0,0.0,97,0.00,,---,0.00,VWS V14.01,2013-01-12 10:50:00,
2013-01-12 05:53:00,63.8,62.9,30.13,ENE,74,0.0,0.0,97,0.00,,---,0.00,VWS V14.01,2013-01-12 10:53:00,
2013-01-12 05:55:00,63.8,62.9,30.14,ENE,74,0.0,0.0,97,0.00,,---,0.00,VWS V14.01,2013-01-12 10:55:00,
2013-01-12 05:56:00,63.8,62.9,30.14,ENE,74,0.0,0.0,97,0.00,,---,0.00,VWS V14.01,2013-01-12 10:56:00,
2013-01-12 05:58:00,63.8,62.9,30.13,ENE,74,0.0,0.0,97,0.00,,---,0.00,VWS V14.01,2013-01-12 10:58:00,
2013-01-12 06:00:00,63.8,62.9,30.14,ENE,74,0.0,0.0,97,0.00,,---,0.00,VWS V14.01,2013-01-12 11:00:00,
2013-01-12 06:01:00,63.7,62.8,30.13,ENE,74,0.0,0.0,97,0.00,,---,0.00,VWS V14.01,2013-01-12 11:01:00,
2013-01-12 06:02:00,63.7,62.8,30.13,ENE,74,0.0,0.0,97,0.00,,---,0.00,VWS V14.01,2013-01-12 11:02:00,
2013-01-12 06:04:00,63.6,62.7,30.13,ENE,74,0.0,0.0,97,0.00,,---,0.00,VWS V14.01,2013-01-12 11:04:00,
2013-01-12 06:05:00,63.6,62.7,30.14,ENE,74,0.0,0.0,97,0.00,,---,0.00,VWS V14.01,2013-01-12 11:05:00,
2013-01-12 06:06:00,63.6,62.7,30.14,ENE,74,0.0,0.0,97,0.00,,---,0.00,VWS V14.01,2013-01-12 11:06:00,
2013-01-12 06:07:00,63.6,62.7,30.14,ENE,74,0.0,0.0,97,0.00,,---,0.00,VWS V14.01,2013-01-12 11:07:00,
2013-01-12 06:08:00,63.6,62.7,30.14,ENE,74,0.0,0.0,97,0.00,,---,0.00,VWS V14.01,2013-01-12 11:08:00,
2013-01-12 06:09:00,63.5,62.6,30.14,ENE,74,0.0,0.0,97,0.00,,---,0.00,VWS V14.01,2013-01-12 11:09:00,
2013-01-12 06:10:00,63.5,62.6,30.14,ENE,74,0.0,0.0,97,0.00,,---,0.00,VWS V14.01,2013-01-12 11:10:00,
2013-01-12 06:12:00,63.5,62.6,30.14,ENE,74,0.0,0.0,97,0.00,,---,0.00,VWS V14.01,2013-01-12 11:12:00,
2013-01-12 06:13:00,63.5,62.6,30.14,ENE,74,0.0,0.0,97,0.00,,---,0.00,VWS V14.01,2013-01-12 11:13:00,
2013-01-12 06:14:00,63.5,62.6,30.14,ENE,74,0.0,0.0,97,0.00,,---,0.00,VWS V14.01,2013-01-12 11:14:00,
2013-01-12 06:15:00,63.5,62.6,30.14,ENE,74,0.0,0.0,97,0.00,,---,0.00,VWS V14.01,2013-01-12 11:15:00,
2013-01-12 06:18:00,63.5,62.6,30.14,ENE,74,0.0,0.0,97,0.00,,---,0.00,VWS V14.01,2013-01-12 11:18:00,
2013-01-12 06:20:00,63.5,62.6,30.14,ENE,74,0.0,0.0,97,0.00,,---,0.00,VWS V14.01,2013-01-12 11:20:00,
2013-01-12 06:24:00,63.6,63.0,30.14,ENE,74,1.0,1.0,98,0.00,,---,0.00,VWS V14.01,2013-01-12 11:24:00,
2013-01-12 06:25:00,63.7,63.1,30.14,ENE,74,0.0,1.0,98,0.00,,---,0.00,VWS V14.01,2013-01-12 11:25:00,
2013-01-12 06:26:00,63.7,63.1,30.14,ENE,74,0.0,1.0,98,0.00,,---,0.00,VWS V14.01,2013-01-12 11:26:00,
2013-01-12 06:29:00,63.7,62.8,30.14,ENE,74,0.0,1.0,97,0.00,,---,0.00,VWS V14.01,2013-01-12 11:29:00,
2013-01-12 06:30:00,63.6,62.7,30.14,ENE,74,0.0,1.0,97,0.00,,---,0.00,VWS V14.01,2013-01-12 11:30:00,
2013-01-12 06:31:00,63.6,62.7,30.14,ENE,74,0.0,1.0,97,0.00,,---,0.00,VWS V14.01,2013-01-12 11:31:00,
2013-01-12 06:32:00,63.6,62.7,30.14,ENE,74,0.0,1.0,97,0.00,,---,0.00,VWS V14.01,2013-01-12 11:32:00,
2013-01-12 06:35:00,63.7,63.1,30.15,ENE,74,0.0,1.0,98,0.00,,---,0.00,VWS V14.01,2013-01-12 11:35:00,
2013-01-12 06:37:00,63.8,63.2,30.15,ENE,74,0.0,0.0,98,0.00,,---,0.00,VWS V14.01,2013-01-12 11:37:00,
2013-01-12 06:39:00,63.8,63.2,30.15,ENE,74,0.0,0.0,98,0.00,,---,0.00,VWS V14.01,2013-01-12 11:39:00,
2013-01-12 06:40:00,63.8,63.2,30.15,ENE,74,0.0,0.0,98,0.00,,---,0.00,VWS V14.01,2013-01-12 11:40:00,
2013-01-12 06:43:00,63.8,63.2,30.15,ENE,74,0.0,0.0,98,0.00,,---,0.00,VWS V14.01,2013-01-12 11:43:00,
2013-01-12 06:44:00,63.8,62.9,30.15,ENE,74,0.0,0.0,97,0.00,,---,0.00,VWS V14.01,2013-01-12 11:44:00,
2013-01-12 06:45:00,63.7,62.8,30.15,ENE,74,0.0,0.0,97,0.00,,---,0.00,VWS V14.01,2013-01-12 11:45:00,
2013-01-12 06:47:00,63.7,62.8,30.15,ENE,74,0.0,0.0,97,0.00,,---,0.00,VWS V14.01,2013-01-12 11:47:00,
2013-01-12 06:48:00,63.7,62.8,30.15,ENE,74,0.0,1.0,97,0.00,,---,0.00,VWS V14.01,2013-01-12 11:48:00,
2013-01-12 06:49:00,63.8,63.2,30.15,ENE,74,1.0,1.0,98,0.01,,---,0.01,VWS V14.01,2013-01-12 11:49:00,
2013-01-12 06:50:00,63.8,63.2,30.15,ENE,74,1.0,1.0,98,0.01,,---,0.01,VWS V14.01,2013-01-12 11:50:00,
2013-01-12 06:51:00,63.8,63.2,30.15,ENE,74,1.0,1.0,98,0.01,,---,0.01,VWS V14.01,2013-01-12 11:51:00,
2013-01-12 06:52:00,63.9,63.3,30.15,ENE,74,0.0,1.0,98,0.01,,---,0.01,VWS V14.01,2013-01-12 11:52:00,
2013-01-12 06:53:00,63.9,63.3,30.15,ENE,74,0.0,1.0,98,0.01,,---,0.01,VWS V14.01,2013-01-12 11:53:00,
2013-01-12 06:55:00,64.1,63.5,30.15,ENE,74,0.0,1.0,98,0.01,,---,0.01,VWS V14.01,2013-01-12 11:55:00,
2013-01-12 06:57:00,64.1,63.5,30.15,ENE,74,0.0,0.0,98,0.01,,---,0.01,VWS V14.01,2013-01-12 11:57:00,
2013-01-12 06:58:00,64.1,63.5,30.15,ENE,74,0.0,0.0,98,0.01,,---,0.01,VWS V14.01,2013-01-12 11:58:00,
2013-01-12 07:00:00,64.2,63.6,30.15,ENE,74,0.0,0.0,98,0.01,,---,0.01,VWS V14.01,2013-01-12 12:00:00,
2013-01-12 07:01:00,64.2,63.6,30.15,ENE,74,0.0,0.0,98,0.01,,---,0.01,VWS V14.01,2013-01-12 12:01:00,
2013-01-12 07:02:00,64.2,63.6,30.15,ENE,74,0.0,0.0,98,0.01,,---,0.01,VWS V14.01,2013-01-12 12:02:00,
2013-01-12 07:03:00,64.1,63.5,30.15,ENE,74,0.0,0.0,98,0.01,,---,0.01,VWS V14.01,2013-01-12 12:03:00,
2013-01-12 07:05:00,64.1,63.5,30.15,ENE,74,0.0,0.0,98,0.01,,---,0.01,VWS V14.01,2013-01-12 12:05:00,
2013-01-12 07:07:00,64.1,63.5,30.15,ENE,74,0.0,0.0,98,0.01,,---,0.01,VWS V14.01,2013-01-12 12:07:00,
2013-01-12 07:08:00,64.1,63.5,30.16,ENE,74,0.0,0.0,98,0.01,,---,0.01,VWS V14.01,2013-01-12 12:08:00,
2013-01-12 07:10:00,64.1,63.5,30.16,ENE,74,0.0,1.0,98,0.01,,---,0.01,VWS V14.01,2013-01-12 12:10:00,
2013-01-12 07:11:00,64.1,63.5,30.16,ENE,74,0.0,1.0,98,0.01,,---,0.01,VWS V14.01,2013-01-12 12:11:00,
2013-01-12 07:14:00,64.1,63.5,30.16,ENE,74,0.0,1.0,98,0.01,,---,0.01,VWS V14.01,2013-01-12 12:14:00,
2013-01-12 07:15:00,64.1,63.5,30.16,ENE,74,0.0,1.0,98,0.01,,---,0.01,VWS V14.01,2013-01-12 12:15:00,
2013-01-12 07:16:00,64.2,63.6,30.16,ENE,74,0.0,1.0,98,0.01,,---,0.01,VWS V14.01,2013-01-12 12:16:00,
2013-01-12 07:17:00,64.1,63.5,30.16,ENE,74,0.0,0.0,98,0.01,,---,0.01,VWS V14.01,2013-01-12 12:17:00,
2013-01-12 07:20:00,64.1,63.5,30.16,ENE,74,0.0,0.0,98,0.01,,---,0.01,VWS V14.01,2013-01-12 12:20:00,
2013-01-12 07:21:00,64.1,63.5,30.16,ENE,74,0.0,0.0,98,0.01,,---,0.01,VWS V14.01,2013-01-12 12:21:00,
2013-01-12 07:23:00,64.1,63.5,30.16,ENE,74,0.0,0.0,98,0.01,,---,0.01,VWS V14.01,2013-01-12 12:23:00,
2013-01-12 07:25:00,64.0,63.4,30.16,ENE,74,0.0,1.0,98,0.01,,---,0.01,VWS V14.01,2013-01-12 12:25:00,
2013-01-12 07:26:00,64.0,63.4,30.16,ENE,74,1.0,1.0,98,0.01,,---,0.01,VWS V14.01,2013-01-12 12:26:00,
2013-01-12 07:27:00,64.0,63.4,30.16,ENE,74,0.0,1.0,98,0.01,,---,0.01,VWS V14.01,2013-01-12 12:27:00,
2013-01-12 07:28:00,64.0,63.4,30.16,ENE,74,0.0,1.0,98,0.01,,---,0.01,VWS V14.01,2013-01-12 12:28:00,
2013-01-12 07:30:00,64.1,63.5,30.16,ENE,74,1.0,1.0,98,0.01,,---,0.01,VWS V14.01,2013-01-12 12:30:00,
2013-01-12 07:31:00,64.1,63.5,30.16,ENE,74,1.0,1.0,98,0.01,,---,0.01,VWS V14.01,2013-01-12 12:31:00,
2013-01-12 07:32:00,64.1,63.5,30.16,ENE,74,2.0,2.0,98,0.01,,---,0.01,VWS V14.01,2013-01-12 12:32:00,
2013-01-12 07:33:00,64.2,63.6,30.16,ENE,74,0.0,2.0,98,0.01,,---,0.01,VWS V14.01,2013-01-12 12:33:00,
2013-01-12 07:35:00,64.3,63.7,30.16,ENE,74,1.0,2.0,98,0.01,,---,0.01,VWS V14.01,2013-01-12 12:35:00,
2013-01-12 07:37:00,64.5,63.9,30.16,ENE,74,1.0,1.0,98,0.01,,---,0.01,VWS V14.01,2013-01-12 12:37:00,
2013-01-12 07:38:00,64.5,63.9,30.16,ENE,74,0.0,1.0,98,0.01,,---,0.01,VWS V14.01,2013-01-12 12:38:00,
2013-01-12 07:39:00,64.5,63.9,30.16,ENE,74,0.0,1.0,98,0.01,,---,0.01,VWS V14.01,2013-01-12 12:39:00,
2013-01-12 07:40:00,64.6,64.0,30.16,ENE,74,1.0,2.0,98,0.01,,---,0.01,VWS V14.01,2013-01-12 12:40:00,
2013-01-12 07:43:00,64.7,64.1,30.16,ENE,74,0.0,1.0,98,0.01,,---,0.01,VWS V14.01,2013-01-12 12:43:00,
2013-01-12 07:44:00,64.7,64.1,30.16,ENE,74,0.0,1.0,98,0.01,,---,0.01,VWS V14.01,2013-01-12 12:44:00,
2013-01-12 07:45:00,64.8,64.2,30.16,ENE,74,0.0,1.0,98,0.01,,---,0.01,VWS V14.01,2013-01-12 12:45:00,
2013-01-12 07:46:00,64.8,64.2,30.16,ENE,74,0.0,0.0,98,0.01,,---,0.01,VWS V14.01,2013-01-12 12:46:00,
2013-01-12 07:49:00,64.9,64.3,30.16,ENE,74,0.0,1.0,98,0.01,,---,0.01,VWS V14.01,2013-01-12 12:49:00,
2013-01-12 07:50:00,64.9,64.3,30.16,ENE,74,0.0,1.0,98,0.01,,---,0.01,VWS V14.01,2013-01-12 12:50:00,
2013-01-12 07:52:00,65.0,64.4,30.16,ENE,74,0.0,1.0,98,0.00,,---,0.01,VWS V14.01,2013-01-12 12:52:00,
2013-01-12 07:54:00,65.0,64.4,30.16,ENE,74,1.0,1.0,98,0.00,,---,0.01,VWS V14.01,2013-01-12 12:54:00,
2013-01-12 07:55:00,65.0,64.4,30.16,ENE,74,1.0,1.0,98,0.00,,---,0.01,VWS V14.01,2013-01-12 12:55:00,
2013-01-12 07:58:00,65.0,64.4,30.16,ENE,74,0.0,1.0,98,0.00,,---,0.01,VWS V14.01,2013-01-12 12:58:00,
2013-01-12 08:00:00,65.0,64.4,30.16,ENE,74,1.0,1.0,98,0.00,,---,0.01,VWS V14.01,2013-01-12 13:00:00,
2013-01-12 08:02:00,65.0,64.4,30.16,ENE,75,1.0,3.0,98,0.00,,---,0.01,VWS V14.01,2013-01-12 13:02:00,
2013-01-12 08:04:00,65.1,64.5,30.16,ENE,74,0.0,3.0,98,0.00,,---,0.01,VWS V14.01,2013-01-12 13:04:00,
2013-01-12 08:05:00,65.2,64.6,30.17,ENE,74,0.0,3.0,98,0.00,,---,0.01,VWS V14.01,2013-01-12 13:05:00,
2013-01-12 08:09:00,65.3,64.7,30.17,ENE,74,0.0,1.0,98,0.00,,---,0.01,VWS V14.01,2013-01-12 13:09:00,
2013-01-12 08:10:00,65.3,64.7,30.17,ENE,74,0.0,1.0,98,0.00,,---,0.01,VWS V14.01,2013-01-12 13:10:00,
2013-01-12 08:11:00,65.4,64.8,30.17,ENE,74,0.0,1.0,98,0.00,,---,0.01,VWS V14.01,2013-01-12 13:11:00,
2013-01-12 08:14:00,65.6,65.0,30.17,ENE,74,0.0,2.0,98,0.00,,---,0.01,VWS V14.01,2013-01-12 13:14:00,
2013-01-12 08:15:00,65.6,65.0,30.17,ENE,74,2.0,2.0,98,0.00,,---,0.01,VWS V14.01,2013-01-12 13:15:00,
2013-01-12 08:16:00,65.7,65.1,30.17,ENE,74,2.0,2.0,98,0.00,,---,0.01,VWS V14.01,2013-01-12 13:16:00,
2013-01-12 08:17:00,65.7,65.1,30.17,ENE,74,1.0,2.0,98,0.00,,---,0.01,VWS V14.01,2013-01-12 13:17:00,
2013-01-12 08:18:00,65.7,65.1,30.17,ENE,74,0.0,2.0,98,0.00,,---,0.01,VWS V14.01,2013-01-12 13:18:00,
2013-01-12 08:20:00,65.8,65.2,30.17,ENE,74,1.0,2.0,98,0.00,,---,0.01,VWS V14.01,2013-01-12 13:20:00,
2013-01-12 08:21:00,65.8,65.2,30.17,East,82,1.0,2.0,98,0.00,,---,0.01,VWS V14.01,2013-01-12 13:21:00,
2013-01-12 08:22:00,65.8,65.2,30.17,East,82,1.0,2.0,98,0.00,,---,0.01,VWS V14.01,2013-01-12 13:22:00,
2013-01-12 08:24:00,65.9,65.3,30.17,East,82,1.0,2.0,98,0.00,,---,0.01,VWS V14.01,2013-01-12 13:24:00,
2013-01-12 08:25:00,65.9,65.3,30.17,East,82,1.0,2.0,98,0.00,,---,0.01,VWS V14.01,2013-01-12 13:25:00,
2013-01-12 08:26:00,66.0,65.4,30.17,East,82,1.0,1.0,98,0.00,,---,0.01,VWS V14.01,2013-01-12 13:26:00,
2013-01-12 08:27:00,66.0,65.4,30.17,ENE,74,1.0,2.0,98,0.00,,---,0.01,VWS V14.01,2013-01-12 13:27:00,
2013-01-12 08:29:00,66.1,65.5,30.17,ENE,74,1.0,2.0,98,0.00,,---,0.01,VWS V14.01,2013-01-12 13:29:00,
2013-01-12 08:30:00,66.1,65.5,30.17,ENE,74,1.0,2.0,98,0.00,,---,0.01,VWS V14.01,2013-01-12 13:30:00,
2013-01-12 08:31:00,66.2,65.6,30.17,ENE,67,3.0,3.0,98,0.00,,---,0.01,VWS V14.01,2013-01-12 13:31:00,
2013-01-12 08:33:00,66.3,65.7,30.17,ENE,67,1.0,3.0,98,0.00,,---,0.01,VWS V14.01,2013-01-12 13:33:00,
2013-01-12 08:35:00,66.3,65.7,30.17,ENE,67,1.0,3.0,98,0.00,,---,0.01,VWS V14.01,2013-01-12 13:35:00,
2013-01-12 08:36:00,66.4,65.8,30.17,East,90,0.0,3.0,98,0.00,,---,0.01,VWS V14.01,2013-01-12 13:36:00,
2013-01-12 08:37:00,66.5,65.9,30.17,East,101,0.0,3.0,98,0.00,,---,0.01,VWS V14.01,2013-01-12 13:37:00,
2013-01-12 08:38:00,66.5,65.9,30.17,East,101,1.0,3.0,98,0.00,,---,0.01,VWS V14.01,2013-01-12 13:38:00,
2013-01-12 08:40:00,66.6,66.0,30.17,East,101,1.0,3.0,98,0.00,,---,0.01,VWS V14.01,2013-01-12 13:40:00,
2013-01-12 08:41:00,66.6,66.0,30.17,East,91,3.0,3.0,98,0.00,,---,0.01,VWS V14.01,2013-01-12 13:41:00,
2013-01-12 08:43:00,66.7,65.8,30.17,East,82,1.0,3.0,97,0.00,,---,0.01,VWS V14.01,2013-01-12 13:43:00,
2013-01-12 08:45:00,66.8,65.9,30.17,East,82,2.0,3.0,97,0.00,,---,0.01,VWS V14.01,2013-01-12 13:45:00,
2013-01-12 08:46:00,66.8,65.9,30.17,East,82,2.0,2.0,97,0.00,,---,0.01,VWS V14.01,2013-01-12 13:46:00,
2013-01-12 08:47:00,66.9,66.0,30.17,East,82,1.0,2.0,97,0.00,,---,0.01,VWS V14.01,2013-01-12 13:47:00,
2013-01-12 08:48:00,67.0,66.1,30.17,East,82,2.0,2.0,97,0.00,,---,0.01,VWS V14.01,2013-01-12 13:48:00,
2013-01-12 08:49:00,67.0,66.1,30.17,East,82,1.0,2.0,97,0.00,,---,0.01,VWS V14.01,2013-01-12 13:49:00,
2013-01-12 08:50:00,67.1,66.2,30.17,East,93,0.0,2.0,97,0.00,,---,0.01,VWS V14.01,2013-01-12 13:50:00,
2013-01-12 08:53:00,67.2,66.0,30.17,East,87,1.0,3.0,96,0.00,,---,0.01,VWS V14.01,2013-01-12 13:53:00,
2013-01-12 08:54:00,67.2,66.0,30.17,East,80,1.0,3.0,96,0.00,,---,0.01,VWS V14.01,2013-01-12 13:54:00,
2013-01-12 08:55:00,67.3,66.1,30.17,ENE,76,2.0,3.0,96,0.00,,---,0.01,VWS V14.01,2013-01-12 13:55:00,
2013-01-12 08:56:00,67.3,66.1,30.17,NE,52,3.0,3.0,96,0.00,,---,0.01,VWS V14.01,2013-01-12 13:56:00,
2013-01-12 08:59:00,67.5,66.0,30.17,East,89,0.0,5.0,95,0.00,,---,0.01,VWS V14.01,2013-01-12 13:59:00,
2013-01-12 09:00:00,67.6,66.1,30.17,ENE,63,1.0,5.0,95,0.00,,---,0.01,VWS V14.01,2013-01-12 14:00:00,
2013-01-12 09:01:00,67.6,66.1,30.17,ENE,63,1.0,1.0,95,0.00,,---,0.01,VWS V14.01,2013-01-12 14:01:00,
2013-01-12 09:05:00,67.8,66.0,30.17,NNE,33,2.0,3.0,94,0.00,,---,0.01,VWS V14.01,2013-01-12 14:05:00,
2013-01-12 09:06:00,67.8,66.0,30.17,NE,50,2.0,3.0,94,0.00,,---,0.01,VWS V14.01,2013-01-12 14:06:00,
2013-01-12 09:08:00,68.0,66.2,30.17,SE,136,1.0,5.0,94,0.00,,---,0.01,VWS V14.01,2013-01-12 14:08:00,
2013-01-12 09:10:00,68.2,66.1,30.17,East,89,2.0,5.0,93,0.00,,---,0.01,VWS V14.01,2013-01-12 14:10:00,
2013-01-12 09:11:00,68.3,66.2,30.17,East,85,2.0,2.0,93,0.00,,---,0.01,VWS V14.01,2013-01-12 14:11:00,
2013-01-12 09:14:00,68.5,66.1,30.18,NE,52,2.0,5.0,92,0.00,,---,0.01,VWS V14.01,2013-01-12 14:14:00,
2013-01-12 09:15:00,68.6,66.2,30.18,ENE,64,2.0,5.0,92,0.00,,---,0.01,VWS V14.01,2013-01-12 14:15:00,
2013-01-12 09:17:00,68.7,66.3,30.18,ENE,73,2.0,4.0,92,0.00,,---,0.01,VWS V14.01,2013-01-12 14:17:00,
2013-01-12 09:19:00,68.8,66.4,30.17,East,96,1.0,4.0,92,0.00,,---,0.01,VWS V14.01,2013-01-12 14:19:00,
2013-01-12 09:20:00,68.9,66.2,30.18,NE,47,1.0,4.0,91,0.00,,---,0.01,VWS V14.01,2013-01-12 14:20:00,
2013-01-12 09:22:00,69.1,66.4,30.18,ESE,108,1.0,3.0,91,0.00,,---,0.01,VWS V14.01,2013-01-12 14:22:00,
2013-01-12 09:23:00,69.2,66.5,30.18,ESE,108,2.0,3.0,91,0.00,,---,0.01,VWS V14.01,2013-01-12 14:23:00,
2013-01-12 09:24:00,69.2,66.5,30.18,East,85,1.0,3.0,91,0.00,,---,0.01,VWS V14.01,2013-01-12 14:24:00,
2013-01-12 09:25:00,69.3,66.6,30.18,ENE,63,2.0,3.0,91,0.00,,---,0.01,VWS V14.01,2013-01-12 14:25:00,
2013-01-12 09:27:00,69.4,66.3,30.18,East,101,2.0,2.0,90,0.00,,---,0.01,VWS V14.01,2013-01-12 14:27:00,
2013-01-12 09:28:00,69.5,66.4,30.18,East,88,3.0,3.0,90,0.00,,---,0.01,VWS V14.01,2013-01-12 14:28:00,
2013-01-12 09:30:00,69.6,66.5,30.18,East,88,1.0,3.0,90,0.00,,---,0.01,VWS V14.01,2013-01-12 14:30:00,
2013-01-12 09:31:00,69.7,66.6,30.18,East,84,2.0,3.0,90,0.00,,---,0.01,VWS V14.01,2013-01-12 14:31:00,
2013-01-12 09:32:00,69.8,66.7,30.17,East,81,1.0,2.0,90,0.00,,---,0.01,VWS V14.01,2013-01-12 14:32:00,
2013-01-12 09:34:00,70.0,66.9,30.17,ENE,59,3.0,4.0,90,0.00,,---,0.01,VWS V14.01,2013-01-12 14:34:00,
2013-01-12 09:35:00,70.1,66.7,30.17,East,91,2.0,4.0,89,0.00,,---,0.01,VWS V14.01,2013-01-12 14:35:00,
2013-01-12 09:36:00,70.1,66.7,30.17,East,91,2.0,4.0,89,0.00,,---,0.01,VWS V14.01,2013-01-12 14:36:00,
2013-01-12 09:37:00,70.3,66.9,30.17,East,91,2.0,2.0,89,0.00,,---,0.01,VWS V14.01,2013-01-12 14:37:00,
2013-01-12 09:39:00,70.5,66.8,30.17,NE,52,1.0,4.0,88,0.00,,---,0.01,VWS V14.01,2013-01-12 14:39:00,
2013-01-12 09:40:00,70.6,66.9,30.17,NE,50,2.0,4.0,88,0.00,,---,0.01,VWS V14.01,2013-01-12 14:40:00,
2013-01-12 09:41:00,70.6,66.9,30.18,ENE,59,2.0,2.0,88,0.00,,---,0.01,VWS V14.01,2013-01-12 14:41:00,
2013-01-12 09:42:00,70.7,66.7,30.17,ENE,69,2.0,2.0,87,0.00,,---,0.01,VWS V14.01,2013-01-12 14:42:00,
2013-01-12 09:44:00,70.9,66.8,30.17,ENE,58,1.0,5.0,87,0.00,,---,0.01,VWS V14.01,2013-01-12 14:44:00,
2013-01-12 09:45:00,70.9,66.8,30.17,ENE,58,2.0,5.0,87,0.00,,---,0.01,VWS V14.01,2013-01-12 14:45:00,
2013-01-12 09:46:00,71.0,66.9,30.17,ENE,73,2.0,3.0,87,0.00,,---,0.01,VWS V14.01,2013-01-12 14:46:00,
2013-01-12 09:48:00,71.2,66.8,30.17,East,90,3.0,4.0,86,0.00,,---,0.01,VWS V14.01,2013-01-12 14:48:00,
2013-01-12 09:50:00,71.3,66.9,30.17,NE,49,4.0,5.0,86,0.00,,---,0.01,VWS V14.01,2013-01-12 14:50:00,
2013-01-12 09:51:00,71.3,66.9,30.17,NE,56,2.0,6.0,86,0.00,,---,0.01,VWS V14.01,2013-01-12 14:51:00,
2013-01-12 09:53:00,71.5,66.8,30.17,NE,37,3.0,6.0,85,0.00,,---,0.01,VWS V14.01,2013-01-12 14:53:00,
2013-01-12 09:55:00,71.6,66.9,30.17,East,82,3.0,6.0,85,0.00,,---,0.01,VWS V14.01,2013-01-12 14:55:00,
2013-01-12 09:58:00,71.8,67.1,30.17,ENE,72,2.0,4.0,85,0.00,,---,0.01,VWS V14.01,2013-01-12 14:58:00,
2013-01-12 10:00:00,72.1,67.3,30.17,NE,46,2.0,6.0,85,0.00,,---,0.01,VWS V14.01,2013-01-12 15:00:00,
2013-01-12 10:01:00,72.1,67.3,30.17,East,98,2.0,2.0,85,0.00,,---,0.01,VWS V14.01,2013-01-12 15:01:00,
2013-01-12 10:03:00,72.2,67.1,30.17,East,95,2.0,2.0,84,0.00,,---,0.01,VWS V14.01,2013-01-12 15:03:00,
2013-01-12 10:04:00,72.3,67.2,30.17,East,95,0.0,2.0,84,0.00,,---,0.01,VWS V14.01,2013-01-12 15:04:00,
2013-01-12 10:05:00,72.4,67.6,30.17,ENE,65,1.0,2.0,85,0.00,,---,0.01,VWS V14.01,2013-01-12 15:05:00,
2013-01-12 10:06:00,72.4,67.6,30.17,ENE,65,1.0,2.0,85,0.00,,---,0.01,VWS V14.01,2013-01-12 15:06:00,
2013-01-12 10:08:00,72.6,67.8,30.17,ENE,62,2.0,3.0,85,0.00,,---,0.01,VWS V14.01,2013-01-12 15:08:00,
2013-01-12 10:09:00,72.8,67.7,30.17,ENE,69,2.0,3.0,84,0.00,,---,0.01,VWS V14.01,2013-01-12 15:09:00,
2013-01-12 10:10:00,73.0,67.9,30.17,ENE,67,1.0,3.0,84,0.00,,---,0.01,VWS V14.01,2013-01-12 15:10:00,
2013-01-12 10:11:00,73.0,67.9,30.17,ENE,67,1.0,3.0,84,0.00,,---,0.01,VWS V14.01,2013-01-12 15:11:00,
2013-01-12 10:13:00,73.3,67.8,30.17,ENE,65,2.0,5.0,83,0.00,,---,0.01,VWS V14.01,2013-01-12 15:13:00,
2013-01-12 10:14:00,73.4,67.6,30.17,ESE,104,2.0,5.0,82,0.00,,---,0.01,VWS V14.01,2013-01-12 15:14:00,
2013-01-12 10:15:00,73.5,67.7,30.17,ENE,63,1.0,5.0,82,0.00,,---,0.01,VWS V14.01,2013-01-12 15:15:00,
2013-01-12 10:16:00,73.6,67.8,30.17,ESE,118,5.0,5.0,82,0.00,,---,0.01,VWS V14.01,2013-01-12 15:16:00,
2013-01-12 10:18:00,73.7,67.5,30.17,ESE,112,5.0,5.0,81,0.00,,---,0.01,VWS V14.01,2013-01-12 15:18:00,
2013-01-12 10:20:00,73.8,67.2,30.17,SE,144,4.0,7.0,80,0.00,,---,0.01,VWS V14.01,2013-01-12 15:20:00,
2013-01-12 10:21:00,73.9,67.3,30.17,ESE,119,3.0,7.0,80,0.00,,---,0.01,VWS V14.01,2013-01-12 15:21:00,
2013-01-12 10:22:00,73.9,67.3,30.17,East,94,3.0,5.0,80,0.00,,---,0.01,VWS V14.01,2013-01-12 15:22:00,
2013-01-12 10:24:00,73.8,67.2,30.17,ESE,107,2.0,9.0,80,0.00,,---,0.01,VWS V14.01,2013-01-12 15:24:00,
2013-01-12 10:25:00,73.8,67.2,30.17,ENE,73,3.0,9.0,80,0.00,,---,0.01,VWS V14.01,2013-01-12 15:25:00,
2013-01-12 10:26:00,73.9,67.3,30.17,ESE,123,2.0,4.0,80,0.00,,---,0.01,VWS V14.01,2013-01-12 15:26:00,
2013-01-12 10:27:00,73.9,67.3,30.17,ESE,121,2.0,4.0,80,0.00,,---,0.01,VWS V14.01,2013-01-12 15:27:00,
2013-01-12 10:30:00,73.9,67.3,30.17,ENE,76,8.0,11.0,80,0.00,,---,0.01,VWS V14.01,2013-01-12 15:30:00,
2013-01-12 10:31:00,73.9,67.0,30.17,SSE,155,3.0,11.0,79,0.00,,---,0.01,VWS V14.01,2013-01-12 15:31:00,
2013-01-12 10:32:00,73.9,67.3,30.17,South,176,1.0,3.0,80,0.00,,---,0.01,VWS V14.01,2013-01-12 15:32:00,
2013-01-12 10:33:00,74.0,67.4,30.17,ESE,116,2.0,4.0,80,0.00,,---,0.01,VWS V14.01,2013-01-12 15:33:00,
2013-01-12 10:36:00,74.1,67.2,30.17,SE,143,2.0,2.0,79,0.00,,---,0.01,VWS V14.01,2013-01-12 15:36:00,
2013-01-12 10:37:00,74.2,67.3,30.17,ENE,60,5.0,5.0,79,0.00,,---,0.01,VWS V14.01,2013-01-12 15:37:00,
2013-01-12 10:39:00,74.2,67.3,30.17,ENE,62,2.0,5.0,79,0.00,,---,0.01,VWS V14.01,2013-01-12 15:39:00,
2013-01-12 10:41:00,74.3,67.4,30.17,East,84,5.0,5.0,79,0.00,,---,0.01,VWS V14.01,2013-01-12 15:41:00,
2013-01-12 10:42:00,74.3,67.4,30.16,NNE,13,2.0,5.0,79,0.00,,---,0.01,VWS V14.01,2013-01-12 15:42:00,
2013-01-12 10:43:00,74.4,67.5,30.17,ESE,113,1.0,5.0,79,0.00,,---,0.01,VWS V14.01,2013-01-12 15:43:00,
2013-01-12 10:44:00,74.4,67.5,30.16,East,100,5.0,7.0,79,0.00,,---,0.01,VWS V14.01,2013-01-12 15:44:00,
2013-01-12 10:48:00,74.5,67.6,30.16,East,84,1.0,5.0,79,0.00,,---,0.01,VWS V14.01,2013-01-12 15:48:00,
2013-01-12 10:49:00,74.5,67.6,30.16,SSE,164,2.0,9.0,79,0.00,,---,0.01,VWS V14.01,2013-01-12 15:49:00,
2013-01-12 10:50:00,74.5,67.6,30.16,NNE,22,4.0,9.0,79,0.00,,---,0.01,VWS V14.01,2013-01-12 15:50:00,
2013-01-12 10:53:00,74.6,67.7,30.16,SSE,150,5.0,6.0,79,0.00,,---,0.01,VWS V14.01,2013-01-12 15:53:00,
2013-01-12 10:54:00,74.6,67.7,30.16,ENE,78,2.0,6.0,79,0.00,,---,0.01,VWS V14.01,2013-01-12 15:54:00,
2013-01-12 10:56:00,74.6,68.0,30.16,East,97,2.0,6.0,80,0.00,,---,0.01,VWS V14.01,2013-01-12 15:56:00,
2013-01-12 10:58:00,74.8,68.2,30.16,ESE,103,3.0,3.0,80,0.00,,---,0.01,VWS V14.01,2013-01-12 15:58:00,
2013-01-12 10:59:00,74.8,68.2,30.16,East,86,5.0,5.0,80,0.00,,---,0.01,VWS V14.01,2013-01-12 15:59:00,
2013-01-12 11:01:00,74.9,68.3,30.16,ESE,117,3.0,3.0,80,0.00,,---,0.01,VWS V14.01,2013-01-12 16:01:00,
2013-01-12 11:02:00,75.0,68.4,30.16,SSW,210,0.0,3.0,80,0.00,,---,0.01,VWS V14.01,2013-01-12 16:02:00,
2013-01-12 11:05:00,75.1,68.2,30.16,ESE,105,2.0,5.0,79,0.00,,---,0.01,VWS V14.01,2013-01-12 16:05:00,
2013-01-12 11:07:00,75.2,68.6,30.16,East,84,3.0,6.0,80,0.00,,---,0.01,VWS V14.01,2013-01-12 16:07:00,
2013-01-12 11:08:00,75.4,68.4,30.16,East,89,5.0,6.0,79,0.00,,---,0.01,VWS V14.01,2013-01-12 16:08:00,
2013-01-12 11:10:00,75.5,68.5,30.16,SE,125,6.0,6.0,79,0.00,,---,0.01,VWS V14.01,2013-01-12 16:10:00,
2013-01-12 11:12:00,75.6,68.3,30.15,East,86,6.0,9.0,78,0.00,,---,0.01,VWS V14.01,2013-01-12 16:12:00,
2013-01-12 11:14:00,75.7,68.4,30.15,East,82,1.0,11.0,78,0.00,,---,0.01,VWS V14.01,2013-01-12 16:14:00,
2013-01-12 11:15:00,75.8,68.5,30.15,SSE,156,3.0,11.0,78,0.00,,---,0.01,VWS V14.01,2013-01-12 16:15:00,
2013-01-12 11:16:00,75.8,68.5,30.15,SSE,159,3.0,11.0,78,0.00,,---,0.01,VWS V14.01,2013-01-12 16:16:00,
2013-01-12 11:19:00,76.1,68.4,30.15,NE,54,5.0,5.0,77,0.00,,---,0.01,VWS V14.01,2013-01-12 16:19:00,
2013-01-12 11:20:00,76.2,68.5,30.15,East,91,5.0,6.0,77,0.00,,---,0.01,VWS V14.01,2013-01-12 16:20:00,
2013-01-12 11:21:00,76.2,68.5,30.15,ESE,115,2.0,6.0,77,0.00,,---,0.01,VWS V14.01,2013-01-12 16:21:00,
2013-01-12 11:22:00,76.3,68.6,30.15,East,96,2.0,5.0,77,0.00,,---,0.01,VWS V14.01,2013-01-12 16:22:00,
2013-01-12 11:25:00,76.4,68.7,30.14,ESE,123,3.0,8.0,77,0.00,,---,0.01,VWS V14.01,2013-01-12 16:25:00,
2013-01-12 11:26:00,76.5,68.8,30.14,ESE,119,1.0,8.0,77,0.00,,---,0.01,VWS V14.01,2013-01-12 16:26:00,
2013-01-12 11:27:00,76.6,69.2,30.14,ENE,67,4.0,4.0,78,0.00,,---,0.01,VWS V14.01,2013-01-12 16:27:00,
2013-01-12 11:28:00,76.6,68.9,30.14,East,101,2.0,4.0,77,0.00,,---,0.01,VWS V14.01,2013-01-12 16:28:00,
2013-01-12 11:31:00,76.8,69.1,30.14,SE,132,1.0,4.0,77,0.00,,---,0.01,VWS V14.01,2013-01-12 16:31:00,
2013-01-12 11:32:00,76.9,69.2,30.14,ESE,103,2.0,2.0,77,0.00,,---,0.01,VWS V14.01,2013-01-12 16:32:00,
2013-01-12 11:34:00,76.9,68.8,30.14,East,84,2.0,7.0,76,0.00,,---,0.01,VWS V14.01,2013-01-12 16:34:00,
2013-01-12 11:36:00,77.0,68.9,30.14,East,80,2.0,8.0,76,0.00,,---,0.01,VWS V14.01,2013-01-12 16:36:00,
2013-01-12 11:37:00,77.0,68.9,30.14,East,90,2.0,7.0,76,0.00,,---,0.01,VWS V14.01,2013-01-12 16:37:00,
2013-01-12 11:38:00,77.0,68.9,30.14,East,97,3.0,7.0,76,0.00,,---,0.01,VWS V14.01,2013-01-12 16:38:00,
2013-01-12 11:40:00,77.1,69.0,30.13,ENE,62,2.0,7.0,76,0.00,,---,0.01,VWS V14.01,2013-01-12 16:40:00,
2013-01-12 11:41:00,77.2,69.1,30.13,ESE,107,1.0,7.0,76,0.00,,---,0.01,VWS V14.01,2013-01-12 16:41:00,
2013-01-12 11:43:00,77.5,69.3,30.13,East,98,5.0,11.0,76,0.00,,---,0.01,VWS V14.01,2013-01-12 16:43:00,
2013-01-12 11:44:00,77.6,69.1,30.13,ENE,67,3.0,11.0,75,0.00,,---,0.01,VWS V14.01,2013-01-12 16:44:00,
2013-01-12 11:45:00,77.7,69.2,30.13,ENE,67,4.0,11.0,75,0.00,,---,0.01,VWS V14.01,2013-01-12 16:45:00,
2013-01-12 11:46:00,77.8,68.9,30.13,East,95,5.0,11.0,74,0.00,,---,0.01,VWS V14.01,2013-01-12 16:46:00,
2013-01-12 11:48:00,77.9,69.3,30.13,NE,51,3.0,5.0,75,0.00,,---,0.01,VWS V14.01,2013-01-12 16:48:00,
2013-01-12 11:49:00,77.9,69.3,30.13,East,88,7.0,7.0,75,0.00,,---,0.01,VWS V14.01,2013-01-12 16:49:00,
2013-01-12 11:51:00,78.0,69.1,30.13,ESE,104,3.0,3.0,74,0.00,,---,0.01,VWS V14.01,2013-01-12 16:51:00,
2013-01-12 11:54:00,77.9,68.9,30.13,ENE,58,4.0,8.0,74,0.00,,---,0.01,VWS V14.01,2013-01-12 16:54:00,
2013-01-12 11:55:00,77.9,68.9,30.13,ENE,59,3.0,8.0,74,0.00,,---,0.01,VWS V14.01,2013-01-12 16:55:00,
2013-01-12 11:56:00,77.9,68.9,30.13,ESE,115,7.0,7.0,74,0.00,,---,0.01,VWS V14.01,2013-01-12 16:56:00,
2013-01-12 11:57:00,77.8,68.9,30.13,ENE,63,3.0,7.0,74,0.00,,---,0.01,VWS V14.01,2013-01-12 16:57:00,
2013-01-12 11:59:00,77.8,69.2,30.13,East,80,2.0,7.0,75,0.00,,---,0.01,VWS V14.01,2013-01-12 16:59:00,
2013-01-12 12:01:00,77.9,69.3,30.13,ENE,69,1.0,7.0,75,0.00,,---,0.01,VWS V14.01,2013-01-12 17:01:00,
2013-01-12 12:02:00,77.9,69.3,30.13,SE,130,1.0,4.0,75,0.00,,---,0.01,VWS V14.01,2013-01-12 17:02:00,
2013-01-12 12:05:00,77.9,68.6,30.13,East,98,5.0,7.0,73,0.00,,---,0.01,VWS V14.01,2013-01-12 17:05:00,
2013-01-12 12:06:00,77.9,68.6,30.13,ENE,74,3.0,5.0,73,0.00,,---,0.01,VWS V14.01,2013-01-12 17:06:00,
2013-01-12 12:07:00,77.7,68.4,30.12,East,96,2.0,8.0,73,0.00,,---,0.01,VWS V14.01,2013-01-12 17:07:00,
2013-01-12 12:10:00,77.5,68.6,30.12,ENE,66,3.0,8.0,74,0.00,,---,0.01,VWS V14.01,2013-01-12 17:10:00,
2013-01-12 12:11:00,77.4,68.5,30.12,SE,145,3.0,8.0,74,0.00,,---,0.01,VWS V14.01,2013-01-12 17:11:00,
2013-01-12 12:13:00,77.3,68.8,30.12,ESE,113,9.0,9.0,75,0.00,,---,0.01,VWS V14.01,2013-01-12 17:13:00,
2013-01-12 12:15:00,77.4,68.5,30.12,East,96,3.0,9.0,74,0.00,,---,0.01,VWS V14.01,2013-01-12 17:15:00,
2013-01-12 12:16:00,77.5,68.6,30.12,East,100,2.0,9.0,74,0.00,,---,0.01,VWS V14.01,2013-01-12 17:16:00,
2013-01-12 12:17:00,77.6,68.7,30.12,East,88,2.0,5.0,74,0.00,,---,0.01,VWS V14.01,2013-01-12 17:17:00,
2013-01-12 12:18:00,77.6,68.7,30.12,ESE,103,3.0,5.0,74,0.00,,---,0.01,VWS V14.01,2013-01-12 17:18:00,
2013-01-12 12:20:00,77.7,68.4,30.11,ESE,109,2.0,6.0,73,0.00,,---,0.01,VWS V14.01,2013-01-12 17:20:00,
2013-01-12 12:22:00,77.8,68.9,30.11,East,84,3.0,5.0,74,0.00,,---,0.01,VWS V14.01,2013-01-12 17:22:00,
2013-01-12 12:23:00,78.0,68.7,30.11,ESE,119,5.0,5.0,73,0.00,,---,0.01,VWS V14.01,2013-01-12 17:23:00,
2013-01-12 12:24:00,78.1,68.8,30.11,East,96,3.0,7.0,73,0.00,,---,0.01,VWS V14.01,2013-01-12 17:24:00,
2013-01-12 12:26:00,78.1,68.3,30.11,ENE,61,2.0,9.0,72,0.00,,---,0.01,VWS V14.01,2013-01-12 17:26:00,
2013-01-12 12:27:00,78.2,68.8,30.11,ENE,71,8.0,8.0,73,0.00,,---,0.01,VWS V14.01,2013-01-12 17:27:00,
2013-01-12 12:30:00,78.1,68.8,30.11,ESE,108,1.0,8.0,73,0.00,,---,0.01,VWS V14.01,2013-01-12 17:30:00,
2013-01-12 12:31:00,78.1,68.8,30.11,East,80,2.0,3.0,73,0.00,,---,0.01,VWS V14.01,2013-01-12 17:31:00,
2013-01-12 12:32:00,78.1,68.8,30.11,ENE,74,2.0,5.0,73,0.00,,---,0.01,VWS V14.01,2013-01-12 17:32:00,
2013-01-12 12:35:00,78.0,68.7,30.11,SE,131,1.0,6.0,73,0.00,,---,0.01,VWS V14.01,2013-01-12 17:35:00,
2013-01-12 12:36:00,78.0,68.7,30.11,SE,126,2.0,6.0,73,0.00,,---,0.01,VWS V14.01,2013-01-12 17:36:00,
2013-01-12 12:37:00,78.0,68.7,30.11,SE,126,1.0,2.0,73,0.00,,---,0.01,VWS V14.01,2013-01-12 17:37:00,
2013-01-12 12:40:00,78.1,68.3,30.11,ESE,109,3.0,7.0,72,0.00,,---,0.01,VWS V14.01,2013-01-12 17:40:00,
2013-01-12 12:41:00,78.1,68.8,30.11,ENE,77,3.0,7.0,73,0.00,,---,0.01,VWS V14.01,2013-01-12 17:41:00,
2013-01-12 12:42:00,78.0,68.7,30.11,ESE,103,3.0,5.0,73,0.00,,---,0.01,VWS V14.01,2013-01-12 17:42:00,
2013-01-12 12:45:00,77.9,68.2,30.11,ESE,107,1.0,6.0,72,0.00,,---,0.01,VWS V14.01,2013-01-12 17:45:00,
2013-01-12 12:46:00,77.9,68.2,30.11,SE,136,3.0,5.0,72,0.00,,---,0.01,VWS V14.01,2013-01-12 17:46:00,
2013-01-12 12:48:00,77.9,68.6,30.11,East,100,5.0,7.0,73,0.00,,---,0.01,VWS V14.01,2013-01-12 17:48:00,
2013-01-12 12:51:00,77.9,68.6,30.10,ENE,59,4.0,4.0,73,0.00,,---,0.01,VWS V14.01,2013-01-12 17:51:00,
2013-01-12 12:52:00,78.0,68.2,30.10,ENE,69,2.0,5.0,72,0.00,,---,0.01,VWS V14.01,2013-01-12 17:52:00,
2013-01-12 12:54:00,78.2,68.4,30.10,East,79,3.0,6.0,72,0.00,,---,0.01,VWS V14.01,2013-01-12 17:54:00,
2013-01-12 12:56:00,78.4,68.2,30.10,ENE,70,0.0,2.0,71,0.00,,---,0.01,VWS V14.01,2013-01-12 17:56:00,
2013-01-12 12:57:00,78.5,68.3,30.10,ENE,78,2.0,7.0,71,0.00,,---,0.01,VWS V14.01,2013-01-12 17:57:00,
2013-01-12 12:59:00,78.6,68.4,30.10,East,98,1.0,7.0,71,0.00,,---,0.01,VWS V14.01,2013-01-12 17:59:00,
2013-01-12 13:02:00,78.5,68.3,30.10,NE,53,1.0,7.0,71,0.00,,---,0.01,VWS V14.01,2013-01-12 18:02:00,
2013-01-12 13:03:00,78.5,68.3,30.10,ENE,70,2.0,7.0,71,0.00,,---,0.01,VWS V14.01,2013-01-12 18:03:00,
2013-01-12 13:04:00,78.4,68.2,30.10,SE,124,2.0,7.0,71,0.00,,---,0.01,VWS V14.01,2013-01-12 18:04:00,
2013-01-12 13:08:00,78.5,68.3,30.10,East,90,2.0,6.0,71,0.00,,---,0.01,VWS V14.01,2013-01-12 18:08:00,
2013-01-12 13:09:00,78.5,68.3,30.10,East,90,0.0,6.0,71,0.00,,---,0.01,VWS V14.01,2013-01-12 18:09:00,
2013-01-12 13:10:00,78.5,68.3,30.10,SSE,148,1.0,6.0,71,0.00,,---,0.01,VWS V14.01,2013-01-12 18:10:00,
2013-01-12 13:14:00,78.7,68.9,30.10,East,87,2.0,5.0,72,0.00,,---,0.01,VWS V14.01,2013-01-12 18:14:00,
2013-01-12 13:16:00,78.8,68.2,30.10,ENE,59,2.0,3.0,70,0.00,,---,0.01,VWS V14.01,2013-01-12 18:16:00,
2013-01-12 13:17:00,78.9,67.9,30.10,ESE,106,4.0,4.0,69,0.00,,---,0.01,VWS V14.01,2013-01-12 18:17:00,
2013-01-12 13:20:00,79.1,68.1,30.09,ESE,102,3.0,8.0,69,0.00,,---,0.01,VWS V14.01,2013-01-12 18:20:00,
2013-01-12 13:21:00,79.1,68.1,30.09,East,94,1.0,1.0,69,0.00,,---,0.01,VWS V14.01,2013-01-12 18:21:00,
2013-01-12 13:22:00,79.1,68.1,30.09,East,94,2.0,3.0,69,0.00,,---,0.01,VWS V14.01,2013-01-12 18:22:00,
2013-01-12 13:25:00,79.1,68.1,30.09,East,91,3.0,5.0,69,0.00,,---,0.01,VWS V14.01,2013-01-12 18:25:00,
2013-01-12 13:26:00,79.1,68.1,30.09,ESE,110,1.0,5.0,69,0.00,,---,0.01,VWS V14.01,2013-01-12 18:26:00,
2013-01-12 13:27:00,79.1,68.1,30.09,ESE,109,0.0,3.0,69,0.00,,---,0.01,VWS V14.01,2013-01-12 18:27:00,
2013-01-12 13:30:00,79.3,68.3,30.09,ENE,63,4.0,5.0,69,0.00,,---,0.01,VWS V14.01,2013-01-12 18:30:00,
2013-01-12 13:32:00,79.7,68.2,30.09,ESE,119,4.0,4.0,68,0.00,,---,0.01,VWS V14.01,2013-01-12 18:32:00,
2013-01-12 13:33:00,79.7,68.2,30.09,East,94,5.0,5.0,68,0.00,,---,0.01,VWS V14.01,2013-01-12 18:33:00,
2013-01-12 13:35:00,80.0,68.1,30.09,ESE,102,2.0,5.0,67,0.00,,---,0.01,VWS V14.01,2013-01-12 18:35:00,
2013-01-12 13:38:00,80.3,68.3,30.09,East,95,3.0,3.0,67,0.00,,---,0.01,VWS V14.01,2013-01-12 18:38:00,
2013-01-12 13:41:00,80.3,67.9,30.09,ESE,114,3.0,7.0,66,0.00,,---,0.01,VWS V14.01,2013-01-12 18:41:00,
2013-01-12 13:42:00,80.2,68.3,30.09,SE,127,1.0,3.0,67,0.00,,---,0.01,VWS V14.01,2013-01-12 18:42:00,
2013-01-12 13:44:00,80.2,68.3,30.09,East,95,1.0,5.0,67,0.00,,---,0.01,VWS V14.01,2013-01-12 18:44:00,
2013-01-12 13:45:00,80.1,68.2,30.09,East,96,6.0,6.0,67,0.00,,---,0.01,VWS V14.01,2013-01-12 18:45:00,
2013-01-12 13:47:00,80.1,68.2,30.09,ESE,106,4.0,5.0,67,0.00,,---,0.01,VWS V14.01,2013-01-12 18:47:00,
2013-01-12 13:49:00,80.2,68.3,30.09,SE,139,3.0,5.0,67,0.00,,---,0.01,VWS V14.01,2013-01-12 18:49:00,
2013-01-12 13:52:00,80.5,68.1,30.09,ESE,110,1.0,3.0,66,0.00,,---,0.01,VWS V14.01,2013-01-12 18:52:00,
2013-01-12 13:53:00,80.6,68.2,30.09,ESE,105,2.0,3.0,66,0.00,,---,0.01,VWS V14.01,2013-01-12 18:53:00,
2013-01-12 13:54:00,80.7,68.3,30.09,East,80,3.0,3.0,66,0.00,,---,0.01,VWS V14.01,2013-01-12 18:54:00,
2013-01-12 13:58:00,80.8,67.9,30.09,SE,126,2.0,7.0,65,0.00,,---,0.01,VWS V14.01,2013-01-12 18:58:00,
2013-01-12 14:00:00,80.7,67.8,30.08,ESE,104,1.0,7.0,65,0.00,,---,0.01,VWS V14.01,2013-01-12 19:00:00,
2013-01-12 14:01:00,80.6,67.8,30.08,ESE,104,0.0,7.0,65,0.00,,---,0.01,VWS V14.01,2013-01-12 19:01:00,
2013-01-12 14:03:00,80.4,67.6,30.08,East,90,1.0,5.0,65,0.00,,---,0.01,VWS V14.01,2013-01-12 19:03:00,
2013-01-12 14:06:00,80.2,67.8,30.08,NE,41,2.0,5.0,66,0.00,,---,0.01,VWS V14.01,2013-01-12 19:06:00,
2013-01-12 14:08:00,80.2,67.8,30.08,East,97,3.0,5.0,66,0.00,,---,0.01,VWS V14.01,2013-01-12 19:08:00,
2013-01-12 14:11:00,80.3,67.5,30.08,SE,135,3.0,5.0,65,0.00,,---,0.01,VWS V14.01,2013-01-12 19:11:00,
2013-01-12 14:12:00,80.3,67.5,30.08,NNE,24,3.0,3.0,65,0.00,,---,0.01,VWS V14.01,2013-01-12 19:12:00,
2013-01-12 14:14:00,80.5,67.7,30.08,ENE,75,1.0,3.0,65,0.00,,---,0.01,VWS V14.01,2013-01-12 19:14:00,
2013-01-12 14:16:00,80.7,68.3,30.08,East,83,0.0,0.0,66,0.00,,---,0.01,VWS V14.01,2013-01-12 19:16:00,
2013-01-12 14:17:00,80.8,68.4,30.08,East,83,2.0,2.0,66,0.00,,---,0.01,VWS V14.01,2013-01-12 19:17:00,
2013-01-12 14:19:00,81.0,68.1,30.08,NE,54,2.0,3.0,65,0.00,,---,0.01,VWS V14.01,2013-01-12 19:19:00,
2013-01-12 14:21:00,81.4,68.1,30.08,ESE,121,2.0,2.0,64,0.00,,---,0.01,VWS V14.01,2013-01-12 19:21:00,
2013-01-12 14:23:00,81.5,68.2,30.08,ESE,121,1.0,2.0,64,0.00,,---,0.01,VWS V14.01,2013-01-12 19:23:00,
2013-01-12 14:24:00,81.7,68.8,30.08,East,92,2.0,2.0,65,0.00,,---,0.01,VWS V14.01,2013-01-12 19:24:00,
2013-01-12 14:27:00,82.0,68.2,30.08,East,96,2.0,5.0,63,0.00,,---,0.01,VWS V14.01,2013-01-12 19:27:00,
2013-01-12 14:29:00,82.1,67.8,30.08,ESE,103,1.0,5.0,62,0.00,,---,0.01,VWS V14.01,2013-01-12 19:29:00,
2013-01-12 14:31:00,82.0,67.7,30.08,East,82,2.0,5.0,62,0.00,,---,0.01,VWS V14.01,2013-01-12 19:31:00,
2013-01-12 14:32:00,82.0,67.7,30.08,ENE,61,4.0,5.0,62,0.00,,---,0.01,VWS V14.01,2013-01-12 19:32:00,
2013-01-12 14:34:00,81.9,68.1,30.08,ENE,69,2.0,5.0,63,0.00,,---,0.01,VWS V14.01,2013-01-12 19:34:00,
2013-01-12 14:36:00,81.9,67.6,30.08,ENE,61,2.0,3.0,62,0.00,,---,0.01,VWS V14.01,2013-01-12 19:36:00,
2013-01-12 14:37:00,82.0,67.7,30.08,ESE,123,2.0,3.0,62,0.00,,---,0.01,VWS V14.01,2013-01-12 19:37:00,
2013-01-12 14:38:00,82.0,67.7,30.08,ENE,73,4.0,4.0,62,0.00,,---,0.01,VWS V14.01,2013-01-12 19:38:00,
2013-01-12 14:40:00,82.1,67.8,30.08,ENE,65,2.0,4.0,62,0.00,,---,0.01,VWS V14.01,2013-01-12 19:40:00,
2013-01-12 14:41:00,82.2,67.9,30.08,ENE,65,1.0,2.0,62,0.00,,---,0.01,VWS V14.01,2013-01-12 19:41:00,
2013-01-12 14:42:00,82.3,68.0,30.08,ENE,65,2.0,3.0,62,0.00,,---,0.01,VWS V14.01,2013-01-12 19:42:00,
2013-01-12 14:43:00,82.4,67.6,30.08,NE,44,4.0,4.0,61,0.00,,---,0.01,VWS V14.01,2013-01-12 19:43:00,
2013-01-12 14:45:00,82.5,67.7,30.08,East,82,2.0,4.0,61,0.00,,---,0.01,VWS V14.01,2013-01-12 19:45:00,
2013-01-12 14:47:00,82.5,67.7,30.08,NE,49,1.0,8.0,61,0.00,,---,0.01,VWS V14.01,2013-01-12 19:47:00,
2013-01-12 14:48:00,82.6,67.8,30.08,ESE,116,1.0,8.0,61,0.00,,---,0.01,VWS V14.01,2013-01-12 19:48:00,
2013-01-12 14:50:00,82.6,67.3,30.08,East,93,5.0,8.0,60,0.00,,---,0.01,VWS V14.01,2013-01-12 19:50:00,
2013-01-12 14:53:00,82.5,67.2,30.08,East,98,3.0,4.0,60,0.00,,---,0.01,VWS V14.01,2013-01-12 19:53:00,
2013-01-12 14:55:00,82.4,67.6,30.08,SE,124,2.0,4.0,61,0.00,,---,0.01,VWS V14.01,2013-01-12 19:55:00,
2013-01-12 14:58:00,82.2,67.4,30.08,ESE,108,2.0,2.0,61,0.00,,---,0.01,VWS V14.01,2013-01-12 19:58:00,
2013-01-12 14:59:00,82.1,66.8,30.08,ESE,108,1.0,2.0,60,0.00,,---,0.01,VWS V14.01,2013-01-12 19:59:00,
2013-01-12 15:01:00,82.0,67.7,30.08,SE,128,4.0,4.0,62,0.00,,---,0.01,VWS V14.01,2013-01-12 20:01:00,
2013-01-12 15:04:00,81.9,67.1,30.08,SE,125,1.0,4.0,61,0.00,,---,0.01,VWS V14.01,2013-01-12 20:04:00,
2013-01-12 15:06:00,82.0,66.8,30.08,NE,50,1.0,3.0,60,0.00,,---,0.01,VWS V14.01,2013-01-12 20:06:00,
2013-01-12 15:08:00,82.1,67.3,30.08,NE,50,1.0,3.0,61,0.00,,---,0.01,VWS V14.01,2013-01-12 20:08:00,
2013-01-12 15:09:00,82.2,66.9,30.08,ENE,71,3.0,3.0,60,0.00,,---,0.01,VWS V14.01,2013-01-12 20:09:00,
2013-01-12 15:10:00,82.3,67.0,30.08,NE,53,2.0,5.0,60,0.00,,---,0.01,VWS V14.01,2013-01-12 20:10:00,
2013-01-12 15:11:00,82.3,67.0,30.08,ENE,78,1.0,3.0,60,0.00,,---,0.01,VWS V14.01,2013-01-12 20:11:00,
2013-01-12 15:14:00,82.5,67.7,30.08,East,91,2.0,3.0,61,0.00,,---,0.01,VWS V14.01,2013-01-12 20:14:00,
2013-01-12 15:15:00,82.5,67.2,30.08,ESE,109,1.0,3.0,60,0.00,,---,0.01,VWS V14.01,2013-01-12 20:15:00,
2013-01-12 15:16:00,82.6,67.3,30.08,ESE,105,2.0,2.0,60,0.00,,---,0.01,VWS V14.01,2013-01-12 20:16:00,
2013-01-12 15:20:00,82.6,66.8,30.08,East,90,2.0,5.0,59,0.00,,---,0.01,VWS V14.01,2013-01-12 20:20:00,
2013-01-12 15:22:00,82.6,66.8,30.08,ESE,105,5.0,5.0,59,0.00,,---,0.01,VWS V14.01,2013-01-12 20:22:00,
2013-01-12 15:25:00,82.5,66.7,30.08,East,86,3.0,5.0,59,0.00,,---,0.01,VWS V14.01,2013-01-12 20:25:00,
2013-01-12 15:26:00,82.5,67.2,30.08,ESE,113,1.0,5.0,60,0.00,,---,0.01,VWS V14.01,2013-01-12 20:26:00,
2013-01-12 15:27:00,82.5,67.2,30.08,South,175,0.0,3.0,60,0.00,,---,0.01,VWS V14.01,2013-01-12 20:27:00,
2013-01-12 15:30:00,82.1,66.8,30.08,East,87,0.0,3.0,60,0.00,,---,0.01,VWS V14.01,2013-01-12 20:30:00,
2013-01-12 15:31:00,82.1,66.8,30.08,East,87,0.0,0.0,60,0.00,,---,0.01,VWS V14.01,2013-01-12 20:31:00,
2013-01-12 15:32:00,82.0,67.2,30.08,East,87,1.0,1.0,61,0.00,,---,0.01,VWS V14.01,2013-01-12 20:32:00,
2013-01-12 15:34:00,81.9,67.1,30.08,East,87,1.0,1.0,61,0.00,,---,0.01,VWS V14.01,2013-01-12 20:34:00,
2013-01-12 15:36:00,81.8,67.5,30.08,East,87,0.0,1.0,62,0.00,,---,0.01,VWS V14.01,2013-01-12 20:36:00,
2013-01-12 15:37:00,81.8,67.1,30.08,East,87,1.0,3.0,61,0.00,,---,0.01,VWS V14.01,2013-01-12 20:37:00,
2013-01-12 15:39:00,81.6,66.4,30.08,East,94,1.0,3.0,60,0.00,,---,0.01,VWS V14.01,2013-01-12 20:39:00,
2013-01-12 15:41:00,81.5,66.8,30.08,East,94,1.0,1.0,61,0.00,,---,0.01,VWS V14.01,2013-01-12 20:41:00,
2013-01-12 15:42:00,81.4,67.1,30.08,East,94,0.0,2.0,62,0.00,,---,0.01,VWS V14.01,2013-01-12 20:42:00,
2013-01-12 15:45:00,81.3,67.5,30.08,East,94,0.0,2.0,63,0.00,,---,0.01,VWS V14.01,2013-01-12 20:45:00,
2013-01-12 15:46:00,81.3,67.5,30.08,East,94,1.0,2.0,63,0.00,,---,0.01,VWS V14.01,2013-01-12 20:46:00,
2013-01-12 15:47:00,81.2,67.4,30.09,East,94,0.0,2.0,63,0.00,,---,0.01,VWS V14.01,2013-01-12 20:47:00,
2013-01-12 15:49:00,81.2,67.9,30.09,East,94,0.0,2.0,64,0.00,,---,0.01,VWS V14.01,2013-01-12 20:49:00,
2013-01-12 15:50:00,81.1,67.8,30.09,East,94,0.0,2.0,64,0.00,,---,0.01,VWS V14.01,2013-01-12 20:50:00,
2013-01-12 15:51:00,81.0,67.7,30.09,East,94,1.0,1.0,64,0.00,,---,0.01,VWS V14.01,2013-01-12 20:51:00,
2013-01-12 15:52:00,80.9,68.0,30.09,East,94,1.0,1.0,65,0.00,,---,0.01,VWS V14.01,2013-01-12 20:52:00,
2013-01-12 15:55:00,80.5,68.1,30.09,East,94,0.0,1.0,66,0.00,,---,0.01,VWS V14.01,2013-01-12 20:55:00,
2013-01-12 15:56:00,80.2,67.8,30.09,WSW,240,2.0,4.0,66,0.00,,---,0.01,VWS V14.01,2013-01-12 20:56:00,
2013-01-12 15:57:00,80.0,68.5,30.09,SW,234,1.0,4.0,68,0.00,,---,0.01,VWS V14.01,2013-01-12 20:57:00,
2013-01-12 15:58:00,79.8,68.7,30.09,WSW,240,4.0,5.0,69,0.00,,---,0.01,VWS V14.01,2013-01-12 20:58:00,
2013-01-12 16:00:00,79.2,68.6,30.09,WSW,247,2.0,5.0,70,0.00,,---,0.01,VWS V14.01,2013-01-12 21:00:00,
2013-01-12 16:02:00,78.5,68.7,30.09,WSW,237,3.0,3.0,72,0.00,,---,0.01,VWS V14.01,2013-01-12 21:02:00,
2013-01-12 16:03:00,78.3,68.5,30.10,WNW,292,2.0,4.0,72,0.00,,---,0.01,VWS V14.01,2013-01-12 21:03:00,
2013-01-12 16:05:00,77.8,68.9,30.10,WNW,292,2.0,4.0,74,0.00,,---,0.01,VWS V14.01,2013-01-12 21:05:00,
2013-01-12 16:07:00,77.3,68.4,30.10,SW,230,1.0,3.0,74,0.00,,---,0.01,VWS V14.01,2013-01-12 21:07:00,
2013-01-12 16:09:00,77.1,68.6,30.10,West,263,1.0,3.0,75,0.00,,---,0.01,VWS V14.01,2013-01-12 21:09:00,
2013-01-12 16:12:00,76.7,68.6,30.09,WSW,245,1.0,1.0,76,0.00,,---,0.01,VWS V14.01,2013-01-12 21:12:00,
2013-01-12 16:14:00,76.7,68.9,30.10,WSW,245,1.0,2.0,77,0.00,,---,0.01,VWS V14.01,2013-01-12 21:14:00,
2013-01-12 16:15:00,76.7,68.9,30.10,WSW,246,2.0,2.0,77,0.00,,---,0.01,VWS V14.01,2013-01-12 21:15:00,
2013-01-12 16:16:00,76.8,69.1,30.09,WSW,246,0.0,2.0,77,0.00,,---,0.01,VWS V14.01,2013-01-12 21:16:00,
2013-01-12 16:17:00,77.0,69.2,30.10,WSW,254,2.0,3.0,77,0.00,,---,0.01,VWS V14.01,2013-01-12 21:17:00,
2013-01-12 16:20:00,77.1,69.0,30.10,West,279,0.0,4.0,76,0.00,,---,0.01,VWS V14.01,2013-01-12 21:20:00,
2013-01-12 16:22:00,77.3,69.2,30.10,WSW,247,1.0,2.0,76,0.00,,---,0.01,VWS V14.01,2013-01-12 21:22:00,
2013-01-12 16:23:00,77.3,69.2,30.10,WSW,247,1.0,2.0,76,0.00,,---,0.01,VWS V14.01,2013-01-12 21:23:00,
2013-01-12 16:25:00,77.5,69.3,30.10,WSW,238,1.0,6.0,76,0.00,,---,0.01,VWS V14.01,2013-01-12 21:25:00,
2013-01-12 16:27:00,77.4,69.2,30.10,WSW,238,0.0,1.0,76,0.00,,---,0.01,VWS V14.01,2013-01-12 21:27:00,
2013-01-12 16:28:00,77.4,69.2,30.10,SW,236,1.0,2.0,76,0.00,,---,0.01,VWS V14.01,2013-01-12 21:28:00,
2013-01-12 16:29:00,77.4,69.2,30.10,SW,236,1.0,2.0,76,0.00,,---,0.01,VWS V14.01,2013-01-12 21:29:00,
2013-01-12 16:31:00,77.5,69.3,30.10,SSW,193,1.0,4.0,76,0.00,,---,0.01,VWS V14.01,2013-01-12 21:31:00,
2013-01-12 16:32:00,77.6,69.4,30.10,WSW,247,2.0,4.0,76,0.00,,---,0.01,VWS V14.01,2013-01-12 21:32:00,
2013-01-12 16:33:00,77.6,69.4,30.10,WSW,246,2.0,5.0,76,0.00,,---,0.01,VWS V14.01,2013-01-12 21:33:00,
2013-01-12 16:34:00,77.5,69.3,30.10,SW,215,0.0,5.0,76,0.00,,---,0.01,VWS V14.01,2013-01-12 21:34:00,
2013-01-12 16:37:00,77.5,69.3,30.10,WSW,250,2.0,3.0,76,0.00,,---,0.01,VWS V14.01,2013-01-12 21:37:00,
2013-01-12 16:38:00,77.4,69.2,30.10,WSW,249,0.0,3.0,76,0.00,,---,0.01,VWS V14.01,2013-01-12 21:38:00,
2013-01-12 16:40:00,77.3,69.2,30.10,WSW,252,1.0,4.0,76,0.00,,---,0.01,VWS V14.01,2013-01-12 21:40:00,
2013-01-12 16:42:00,77.2,69.1,30.10,WSW,250,1.0,3.0,76,0.00,,---,0.01,VWS V14.01,2013-01-12 21:42:00,
2013-01-12 16:44:00,77.2,69.1,30.10,WSW,244,3.0,4.0,76,0.00,,---,0.01,VWS V14.01,2013-01-12 21:44:00,
2013-01-12 16:46:00,77.1,69.0,30.10,WSW,244,2.0,2.0,76,0.00,,---,0.01,VWS V14.01,2013-01-12 21:46:00,
2013-01-12 16:47:00,77.1,69.0,30.10,WSW,244,0.0,2.0,76,0.00,,---,0.01,VWS V14.01,2013-01-12 21:47:00,
2013-01-12 16:50:00,77.0,69.2,30.10,WSW,254,2.0,5.0,77,0.00,,---,0.01,VWS V14.01,2013-01-12 21:50:00,
2013-01-12 16:51:00,76.9,68.8,30.10,SW,223,1.0,3.0,76,0.00,,---,0.01,VWS V14.01,2013-01-12 21:51:00,
2013-01-12 16:52:00,76.9,68.8,30.10,SW,223,1.0,3.0,76,0.00,,---,0.01,VWS V14.01,2013-01-12 21:52:00,
2013-01-12 16:55:00,76.8,69.1,30.10,WSW,252,1.0,3.0,77,0.00,,---,0.01,VWS V14.01,2013-01-12 21:55:00,
2013-01-12 16:57:00,76.8,69.1,30.10,WSW,244,1.0,3.0,77,0.00,,---,0.01,VWS V14.01,2013-01-12 21:57:00,
2013-01-12 17:01:00,76.6,68.9,30.10,West,259,1.0,4.0,77,0.00,,---,0.01,VWS V14.01,2013-01-12 22:01:00,
2013-01-12 17:02:00,76.6,68.9,30.10,West,259,0.0,3.0,77,0.00,,---,0.01,VWS V14.01,2013-01-12 22:02:00,
2013-01-12 17:03:00,76.5,68.8,30.09,West,259,1.0,3.0,77,0.00,,---,0.01,VWS V14.01,2013-01-12 22:03:00,
2013-01-12 17:07:00,76.5,68.8,30.09,SW,216,3.0,3.0,77,0.00,,---,0.01,VWS V14.01,2013-01-12 22:07:00,
2013-01-12 17:08:00,76.4,68.7,30.09,SW,216,1.0,3.0,77,0.00,,---,0.01,VWS V14.01,2013-01-12 22:08:00,
2013-01-12 17:09:00,76.4,68.7,30.09,SW,216,2.0,3.0,77,0.00,,---,0.01,VWS V14.01,2013-01-12 22:09:00,
2013-01-12 17:12:00,76.1,68.8,30.10,SW,216,1.0,2.0,78,0.00,,---,0.01,VWS V14.01,2013-01-12 22:12:00,
2013-01-12 17:13:00,76.0,68.7,30.10,SW,216,2.0,3.0,78,0.00,,---,0.01,VWS V14.01,2013-01-12 22:13:00,
2013-01-12 17:14:00,75.9,68.9,30.10,SW,216,1.0,3.0,79,0.00,,---,0.01,VWS V14.01,2013-01-12 22:14:00,
2013-01-12 17:17:00,75.5,68.5,30.10,SW,216,2.0,3.0,79,0.00,,---,0.01,VWS V14.01,2013-01-12 22:17:00,
2013-01-12 17:19:00,75.5,68.5,30.10,SW,216,1.0,3.0,79,0.00,,---,0.01,VWS V14.01,2013-01-12 22:19:00,
2013-01-12 17:20:00,75.2,68.2,30.10,SW,236,3.0,3.0,79,0.00,,---,0.01,VWS V14.01,2013-01-12 22:20:00,
2013-01-12 17:23:00,75.0,68.4,30.10,SW,224,0.0,3.0,80,0.00,,---,0.01,VWS V14.01,2013-01-12 22:23:00,
2013-01-12 17:25:00,74.9,68.7,30.10,SW,224,0.0,3.0,81,0.00,,---,0.01,VWS V14.01,2013-01-12 22:25:00,
2013-01-12 17:27:00,74.7,68.5,30.10,SW,224,1.0,2.0,81,0.00,,---,0.01,VWS V14.01,2013-01-12 22:27:00,
2013-01-12 17:28:00,74.7,68.5,30.10,SW,224,0.0,2.0,81,0.00,,---,0.01,VWS V14.01,2013-01-12 22:28:00,
2013-01-12 17:30:00,74.5,68.3,30.10,SW,224,1.0,3.0,81,0.00,,---,0.01,VWS V14.01,2013-01-12 22:30:00,
2013-01-12 17:31:00,74.4,68.2,30.10,SW,224,1.0,3.0,81,0.00,,---,0.01,VWS V14.01,2013-01-12 22:31:00,
2013-01-12 17:32:00,74.3,68.1,30.10,SW,224,0.0,2.0,81,0.00,,---,0.01,VWS V14.01,2013-01-12 22:32:00,
2013-01-12 17:33:00,74.2,68.4,30.10,SW,224,1.0,2.0,82,0.00,,---,0.01,VWS V14.01,2013-01-12 22:33:00,
2013-01-12 17:36:00,74.1,68.3,30.10,SW,224,3.0,3.0,82,0.00,,---,0.01,VWS V14.01,2013-01-12 22:36:00,
2013-01-12 17:38:00,73.9,68.1,30.10,SW,222,2.0,4.0,82,0.00,,---,0.01,VWS V14.01,2013-01-12 22:38:00,
2013-01-12 17:39:00,73.8,68.0,30.10,SW,222,3.0,4.0,82,0.00,,---,0.01,VWS V14.01,2013-01-12 22:39:00,
2013-01-12 17:41:00,73.7,68.2,30.10,SW,223,2.0,2.0,83,0.00,,---,0.01,VWS V14.01,2013-01-12 22:41:00,
2013-01-12 17:43:00,73.5,68.0,30.10,SW,223,1.0,2.0,83,0.00,,---,0.01,VWS V14.01,2013-01-12 22:43:00,
2013-01-12 17:44:00,73.5,68.0,30.10,SW,223,1.0,2.0,83,0.00,,---,0.01,VWS V14.01,2013-01-12 22:44:00,
2013-01-12 17:46:00,73.3,67.8,30.10,SW,222,2.0,2.0,83,0.00,,---,0.01,VWS V14.01,2013-01-12 22:46:00,
2013-01-12 17:48:00,73.2,68.1,30.10,SW,223,1.0,3.0,84,0.00,,---,0.01,VWS V14.01,2013-01-12 22:48:00,
2013-01-12 17:49:00,73.2,68.1,30.10,SW,223,1.0,3.0,84,0.00,,---,0.01,VWS V14.01,2013-01-12 22:49:00,
2013-01-12 17:53:00,73.0,67.9,30.10,SW,223,0.0,2.0,84,0.00,,---,0.01,VWS V14.01,2013-01-12 22:53:00,
2013-01-12 17:54:00,72.9,67.8,30.10,SW,223,0.0,2.0,84,0.00,,---,0.01,VWS V14.01,2013-01-12 22:54:00,
2013-01-12 17:55:00,72.9,67.8,30.10,SW,223,2.0,2.0,84,0.00,,---,0.01,VWS V14.01,2013-01-12 22:55:00,
2013-01-12 17:59:00,72.7,67.9,30.10,SW,223,0.0,1.0,85,0.00,,---,0.01,VWS V14.01,2013-01-12 22:59:00,
2013-01-12 18:00:00,72.7,67.9,30.10,SW,222,0.0,1.0,85,0.00,,---,0.01,VWS V14.01,2013-01-12 23:00:00,
2013-01-12 18:01:00,72.7,67.9,30.10,SW,223,0.0,1.0,85,0.00,,---,0.01,VWS V14.01,2013-01-12 23:01:00,
2013-01-12 18:03:00,72.7,67.6,30.10,SW,223,0.0,0.0,84,0.00,,---,0.01,VWS V14.01,2013-01-12 23:03:00,
2013-01-12 18:05:00,72.6,67.8,30.10,SW,223,0.0,0.0,85,0.00,,---,0.01,VWS V14.01,2013-01-12 23:05:00,
2013-01-12 18:06:00,72.6,67.8,30.10,SW,223,0.0,0.0,85,0.00,,---,0.01,VWS V14.01,2013-01-12 23:06:00,
2013-01-12 18:09:00,72.5,67.7,30.10,SW,223,0.0,0.0,85,0.00,,---,0.01,VWS V14.01,2013-01-12 23:09:00,
2013-01-12 18:11:00,72.4,67.6,30.10,SW,223,0.0,0.0,85,0.00,,---,0.01,VWS V14.01,2013-01-12 23:11:00,
2013-01-12 18:13:00,72.4,67.6,30.10,SW,223,0.0,0.0,85,0.00,,---,0.01,VWS V14.01,2013-01-12 23:13:00,
2013-01-12 18:14:00,72.3,67.5,30.10,SW,223,0.0,0.0,85,0.00,,---,0.01,VWS V14.01,2013-01-12 23:14:00,
2013-01-12 18:16:00,72.2,67.4,30.11,SW,223,0.0,0.0,85,0.00,,---,0.01,VWS V14.01,2013-01-12 23:16:00,
2013-01-12 18:19:00,72.1,67.7,30.11,SW,223,0.0,0.0,86,0.00,,---,0.01,VWS V14.01,2013-01-12 23:19:00,
2013-01-12 18:20:00,72.0,67.6,30.11,SW,222,0.0,0.0,86,0.00,,---,0.01,VWS V14.01,2013-01-12 23:20:00,
2013-01-12 18:21:00,72.0,67.6,30.11,SW,223,0.0,0.0,86,0.00,,---,0.01,VWS V14.01,2013-01-12 23:21:00,
2013-01-12 18:22:00,71.9,67.5,30.11,SW,223,0.0,0.0,86,0.00,,---,0.01,VWS V14.01,2013-01-12 23:22:00,
2013-01-12 18:25:00,71.8,67.4,30.11,SW,223,0.0,0.0,86,0.00,,---,0.01,VWS V14.01,2013-01-12 23:25:00,
2013-01-12 18:26:00,71.7,67.3,30.11,SW,223,0.0,0.0,86,0.00,,---,0.01,VWS V14.01,2013-01-12 23:26:00,
2013-01-12 18:30:00,71.6,67.5,30.11,SW,223,0.0,0.0,87,0.00,,---,0.01,VWS V14.01,2013-01-12 23:30:00,
2013-01-12 18:31:00,71.6,67.5,30.11,SW,222,0.0,0.0,87,0.00,,---,0.01,VWS V14.01,2013-01-12 23:31:00,
2013-01-12 18:32:00,71.6,67.5,30.11,SW,223,0.0,0.0,87,0.00,,---,0.01,VWS V14.01,2013-01-12 23:32:00,
2013-01-12 18:35:00,71.4,67.3,30.11,SW,223,0.0,0.0,87,0.00,,---,0.01,VWS V14.01,2013-01-12 23:35:00,
2013-01-12 18:36:00,71.4,67.3,30.11,SW,223,0.0,0.0,87,0.00,,---,0.01,VWS V14.01,2013-01-12 23:36:00,
2013-01-12 18:37:00,71.4,67.3,30.11,SW,222,0.0,0.0,87,0.00,,---,0.01,VWS V14.01,2013-01-12 23:37:00,
2013-01-12 18:41:00,71.2,67.1,30.11,SW,223,0.0,0.0,87,0.00,,---,0.01,VWS V14.01,2013-01-12 23:41:00,
2013-01-12 18:42:00,71.2,67.1,30.11,SW,223,0.0,0.0,87,0.00,,---,0.01,VWS V14.01,2013-01-12 23:42:00,
2013-01-12 18:47:00,71.1,67.0,30.11,SW,223,0.0,0.0,87,0.00,,---,0.01,VWS V14.01,2013-01-12 23:47:00,
2013-01-12 18:48:00,71.1,67.0,30.11,SW,222,0.0,0.0,87,0.00,,---,0.01,VWS V14.01,2013-01-12 23:48:00,
2013-01-12 18:52:00,70.9,67.2,30.11,SW,223,0.0,0.0,88,0.00,,---,0.01,VWS V14.01,2013-01-12 23:52:00,
2013-01-12 18:53:00,70.8,67.1,30.11,SW,222,0.0,0.0,88,0.00,,---,0.01,VWS V14.01,2013-01-12 23:53:00,
2013-01-12 18:54:00,70.8,67.1,30.11,SW,223,0.0,0.0,88,0.00,,---,0.01,VWS V14.01,2013-01-12 23:54:00,
2013-01-12 18:58:00,70.7,67.0,30.11,SW,223,0.0,0.0,88,0.00,,---,0.01,VWS V14.01,2013-01-12 23:58:00,
2013-01-12 18:59:00,70.6,66.9,30.11,SW,222,0.0,0.0,88,0.00,,---,0.01,VWS V14.01,2013-01-12 23:59:00,
2013-01-12 19:00:00,70.6,66.9,30.11,SW,222,0.0,0.0,88,0.00,,---,0.01,VWS V14.01,2013-01-13 00:00:00,
2013-01-12 19:01:00,70.6,66.9,30.11,SW,223,0.0,0.0,88,0.00,,---,0.01,VWS V14.01,2013-01-13 00:01:00,
2013-01-12 19:03:00,70.5,67.1,30.10,SW,223,0.0,0.0,89,0.00,,---,0.01,VWS V14.01,2013-01-13 00:03:00,
2013-01-12 19:06:00,70.4,67.0,30.10,SW,223,0.0,0.0,89,0.00,,---,0.01,VWS V14.01,2013-01-13 00:06:00,
2013-01-12 19:08:00,70.3,66.9,30.10,SW,223,0.0,0.0,89,0.00,,---,0.01,VWS V14.01,2013-01-13 00:08:00,
2013-01-12 19:11:00,70.2,66.8,30.10,SW,223,0.0,0.0,89,0.00,,---,0.01,VWS V14.01,2013-01-13 00:11:00,
2013-01-12 19:13:00,70.1,66.7,30.10,SW,223,0.0,0.0,89,0.00,,---,0.01,VWS V14.01,2013-01-13 00:13:00,
2013-01-12 19:17:00,70.1,66.7,30.10,SW,223,0.0,0.0,89,0.00,,---,0.01,VWS V14.01,2013-01-13 00:17:00,
2013-01-12 19:18:00,70.0,66.9,30.10,SW,223,0.0,0.0,90,0.00,,---,0.01,VWS V14.01,2013-01-13 00:18:00,
2013-01-12 19:19:00,70.0,66.9,30.10,SW,223,0.0,0.0,90,0.00,,---,0.01,VWS V14.01,2013-01-13 00:19:00,
2013-01-12 19:23:00,69.9,66.8,30.10,SW,222,0.0,0.0,90,0.00,,---,0.01,VWS V14.01,2013-01-13 00:23:00,
2013-01-12 19:24:00,69.9,66.8,30.10,SW,223,0.0,0.0,90,0.00,,---,0.01,VWS V14.01,2013-01-13 00:24:00,
2013-01-12 19:25:00,69.8,66.7,30.11,SW,223,0.0,0.0,90,0.00,,---,0.01,VWS V14.01,2013-01-13 00:25:00,
2013-01-12 19:29:00,69.8,66.7,30.10,SW,223,0.0,0.0,90,0.00,,---,0.01,VWS V14.01,2013-01-13 00:29:00,
2013-01-12 19:30:00,69.7,66.6,30.10,SW,222,0.0,0.0,90,0.00,,---,0.01,VWS V14.01,2013-01-13 00:30:00,
2013-01-12 19:31:00,69.7,66.6,30.10,SW,223,0.0,0.0,90,0.00,,---,0.01,VWS V14.01,2013-01-13 00:31:00,
2013-01-12 19:34:00,69.7,66.6,30.10,SW,223,0.0,0.0,90,0.00,,---,0.01,VWS V14.01,2013-01-13 00:34:00,
2013-01-12 19:35:00,69.7,66.6,30.10,SW,223,0.0,1.0,90,0.00,,---,0.01,VWS V14.01,2013-01-13 00:35:00,
2013-01-12 19:37:00,69.6,66.9,30.10,SW,223,0.0,0.0,91,0.00,,---,0.01,VWS V14.01,2013-01-13 00:37:00,
2013-01-12 19:39:00,69.6,66.9,30.10,SW,223,0.0,0.0,91,0.00,,---,0.01,VWS V14.01,2013-01-13 00:39:00,
2013-01-12 19:40:00,69.6,66.9,30.10,SW,223,0.0,0.0,91,0.00,,---,0.01,VWS V14.01,2013-01-13 00:40:00,
2013-01-12 19:41:00,69.6,66.9,30.10,SW,223,0.0,0.0,91,0.00,,---,0.01,VWS V14.01,2013-01-13 00:41:00,
2013-01-12 19:42:00,69.5,66.8,30.10,SW,223,0.0,0.0,91,0.00,,---,0.01,VWS V14.01,2013-01-13 00:42:00,
2013-01-12 19:44:00,69.5,66.8,30.10,SW,223,0.0,0.0,91,0.00,,---,0.01,VWS V14.01,2013-01-13 00:44:00,
2013-01-12 19:46:00,69.5,66.8,30.10,SW,223,0.0,0.0,91,0.00,,---,0.01,VWS V14.01,2013-01-13 00:46:00,
2013-01-12 19:48:00,69.4,66.7,30.10,SW,222,0.0,0.0,91,0.00,,---,0.01,VWS V14.01,2013-01-13 00:48:00,
2013-01-12 19:51:00,69.4,66.7,30.10,SW,223,0.0,0.0,91,0.00,,---,0.01,VWS V14.01,2013-01-13 00:51:00,
2013-01-12 19:52:00,69.4,66.7,30.10,SW,222,0.0,0.0,91,0.00,,---,0.01,VWS V14.01,2013-01-13 00:52:00,
2013-01-12 19:53:00,69.3,66.6,30.10,SW,223,0.0,0.0,91,0.00,,---,0.01,VWS V14.01,2013-01-13 00:53:00,
2013-01-12 19:56:00,69.3,66.6,30.10,SW,223,0.0,0.0,91,0.00,,---,0.01,VWS V14.01,2013-01-13 00:56:00,
2013-01-12 19:58:00,69.2,66.5,30.10,SW,223,0.0,0.0,91,0.00,,---,0.01,VWS V14.01,2013-01-13 00:58:00,
2013-01-12 20:00:00,69.1,66.7,30.10,SW,223,0.0,0.0,92,0.00,,---,0.01,VWS V14.01,2013-01-13 01:00:00,
2013-01-12 20:01:00,69.1,66.4,30.10,SW,223,0.0,0.0,91,0.00,,---,0.01,VWS V14.01,2013-01-13 01:01:00,
2013-01-12 20:02:00,69.1,66.4,30.10,SW,223,0.0,0.0,91,0.00,,---,0.01,VWS V14.01,2013-01-13 01:02:00,
2013-01-12 20:03:00,69.1,66.4,30.10,SW,223,0.0,0.0,91,0.00,,---,0.01,VWS V14.01,2013-01-13 01:03:00,
2013-01-12 20:06:00,69.0,66.6,30.10,SW,223,0.0,0.0,92,0.00,,---,0.01,VWS V14.01,2013-01-13 01:06:00,
2013-01-12 20:07:00,69.0,66.6,30.10,SW,223,0.0,0.0,92,0.00,,---,0.01,VWS V14.01,2013-01-13 01:07:00,
2013-01-12 20:08:00,69.0,66.6,30.09,SW,223,0.0,0.0,92,0.00,,---,0.01,VWS V14.01,2013-01-13 01:08:00,
2013-01-12 20:12:00,68.9,66.5,30.09,SW,223,0.0,0.0,92,0.00,,---,0.01,VWS V14.01,2013-01-13 01:12:00,
2013-01-12 20:13:00,68.9,66.5,30.09,SW,223,0.0,0.0,92,0.00,,---,0.01,VWS V14.01,2013-01-13 01:13:00,
2013-01-12 20:16:00,68.9,66.5,30.09,SW,223,0.0,0.0,92,0.00,,---,0.01,VWS V14.01,2013-01-13 01:16:00,
2013-01-12 20:18:00,68.8,66.4,30.09,SW,223,1.0,1.0,92,0.00,,---,0.01,VWS V14.01,2013-01-13 01:18:00,
2013-01-12 20:22:00,68.8,66.7,30.09,SW,222,0.0,0.0,93,0.00,,---,0.01,VWS V14.01,2013-01-13 01:22:00,
2013-01-12 20:23:00,68.8,66.7,30.09,SW,223,0.0,0.0,93,0.00,,---,0.01,VWS V14.01,2013-01-13 01:23:00,
2013-01-12 20:24:00,68.8,66.7,30.09,SW,223,0.0,0.0,93,0.00,,---,0.01,VWS V14.01,2013-01-13 01:24:00,
2013-01-12 20:25:00,68.8,66.7,30.09,SW,223,0.0,0.0,93,0.00,,---,0.01,VWS V14.01,2013-01-13 01:25:00,
2013-01-12 20:27:00,68.8,66.7,30.09,SW,223,0.0,0.0,93,0.00,,---,0.01,VWS V14.01,2013-01-13 01:27:00,
2013-01-12 20:29:00,68.8,66.4,30.09,SW,223,0.0,0.0,92,0.00,,---,0.01,VWS V14.01,2013-01-13 01:29:00,
2013-01-12 20:31:00,68.8,66.4,30.09,SW,223,0.0,0.0,92,0.00,,---,0.01,VWS V14.01,2013-01-13 01:31:00,
2013-01-12 20:32:00,68.8,66.4,30.09,SW,223,0.0,0.0,92,0.00,,---,0.01,VWS V14.01,2013-01-13 01:32:00,
2013-01-12 20:34:00,68.7,66.3,30.09,SW,223,0.0,0.0,92,0.00,,---,0.01,VWS V14.01,2013-01-13 01:34:00,
2013-01-12 20:35:00,68.7,66.3,30.09,SW,223,0.0,0.0,92,0.00,,---,0.01,VWS V14.01,2013-01-13 01:35:00,
2013-01-12 20:36:00,68.7,66.3,30.09,SW,222,0.0,0.0,92,0.00,,---,0.01,VWS V14.01,2013-01-13 01:36:00,
2013-01-12 20:37:00,68.7,66.3,30.09,SW,222,0.0,0.0,92,0.00,,---,0.01,VWS V14.01,2013-01-13 01:37:00,
2013-01-12 20:41:00,68.6,66.2,30.09,SW,222,0.0,0.0,92,0.00,,---,0.01,VWS V14.01,2013-01-13 01:41:00,
2013-01-12 20:42:00,68.6,66.5,30.09,SW,223,0.0,0.0,93,0.00,,---,0.01,VWS V14.01,2013-01-13 01:42:00,
2013-01-12 20:46:00,68.5,66.4,30.09,SW,223,0.0,1.0,93,0.00,,---,0.01,VWS V14.01,2013-01-13 01:46:00,
2013-01-12 20:47:00,68.4,66.3,30.09,SW,223,0.0,0.0,93,0.00,,---,0.01,VWS V14.01,2013-01-13 01:47:00,
2013-01-12 20:50:00,68.4,66.3,30.09,SW,223,0.0,0.0,93,0.00,,---,0.01,VWS V14.01,2013-01-13 01:50:00,
2013-01-12 20:51:00,68.4,66.3,30.09,SW,223,0.0,0.0,93,0.00,,---,0.01,VWS V14.01,2013-01-13 01:51:00,
2013-01-12 20:52:00,68.4,66.3,30.09,SW,223,0.0,0.0,93,0.00,,---,0.01,VWS V14.01,2013-01-13 01:52:00,
2013-01-12 20:53:00,68.4,66.3,30.09,SW,223,0.0,0.0,93,0.00,,---,0.01,VWS V14.01,2013-01-13 01:53:00,
2013-01-12 20:55:00,68.4,66.3,30.09,SW,223,0.0,0.0,93,0.00,,---,0.01,VWS V14.01,2013-01-13 01:55:00,
2013-01-12 20:57:00,68.3,66.2,30.09,SW,223,0.0,0.0,93,0.00,,---,0.01,VWS V14.01,2013-01-13 01:57:00,
2013-01-12 20:58:00,68.3,66.2,30.09,SW,223,0.0,0.0,93,0.00,,---,0.01,VWS V14.01,2013-01-13 01:58:00,
2013-01-12 20:59:00,68.3,66.2,30.09,SW,222,0.0,0.0,93,0.00,,---,0.01,VWS V14.01,2013-01-13 01:59:00,
2013-01-12 21:00:00,68.3,66.2,30.09,SW,223,0.0,0.0,93,0.00,,---,0.01,VWS V14.01,2013-01-13 02:00:00,
2013-01-12 21:03:00,68.3,66.2,30.09,SW,223,0.0,0.0,93,0.00,,---,0.01,VWS V14.01,2013-01-13 02:03:00,
2013-01-12 21:04:00,68.3,66.2,30.09,SW,223,0.0,0.0,93,0.00,,---,0.01,VWS V14.01,2013-01-13 02:04:00,
2013-01-12 21:07:00,68.2,66.1,30.09,SW,223,0.0,0.0,93,0.00,,---,0.01,VWS V14.01,2013-01-13 02:07:00,
2013-01-12 21:09:00,68.1,66.0,30.09,SW,223,0.0,0.0,93,0.00,,---,0.01,VWS V14.01,2013-01-13 02:09:00,
2013-01-12 21:10:00,68.1,66.0,30.09,SW,223,0.0,0.0,93,0.00,,---,0.01,VWS V14.01,2013-01-13 02:10:00,
2013-01-12 21:11:00,68.1,66.0,30.09,SW,223,0.0,0.0,93,0.00,,---,0.01,VWS V14.01,2013-01-13 02:11:00,
2013-01-12 21:13:00,68.1,66.0,30.08,SW,223,0.0,0.0,93,0.00,,---,0.01,VWS V14.01,2013-01-13 02:13:00,
2013-01-12 21:14:00,68.1,66.3,30.08,SW,223,0.0,0.0,94,0.00,,---,0.01,VWS V14.01,2013-01-13 02:14:00,
2013-01-12 21:15:00,68.0,66.2,30.08,SW,222,0.0,0.0,94,0.00,,---,0.01,VWS V14.01,2013-01-13 02:15:00,
2013-01-12 21:17:00,68.0,65.9,30.08,SW,223,0.0,0.0,93,0.00,,---,0.01,VWS V14.01,2013-01-13 02:17:00,
2013-01-12 21:19:00,68.0,65.9,30.08,SW,222,0.0,0.0,93,0.00,,---,0.01,VWS V14.01,2013-01-13 02:19:00,
2013-01-12 21:20:00,68.0,66.2,30.08,SW,223,0.0,0.0,94,0.00,,---,0.01,VWS V14.01,2013-01-13 02:20:00,
2013-01-12 21:22:00,67.9,66.1,30.08,SW,223,0.0,0.0,94,0.00,,---,0.01,VWS V14.01,2013-01-13 02:22:00,
2013-01-12 21:23:00,67.9,66.1,30.08,SW,223,0.0,0.0,94,0.00,,---,0.01,VWS V14.01,2013-01-13 02:23:00,
2013-01-12 21:25:00,67.9,66.1,30.08,SW,223,0.0,0.0,94,0.00,,---,0.01,VWS V14.01,2013-01-13 02:25:00,
2013-01-12 21:28:00,67.9,66.1,30.08,SW,223,0.0,0.0,94,0.00,,---,0.01,VWS V14.01,2013-01-13 02:28:00,
2013-01-12 21:29:00,67.9,66.1,30.08,SW,223,0.0,0.0,94,0.00,,---,0.01,VWS V14.01,2013-01-13 02:29:00,
2013-01-12 21:31:00,67.8,66.0,30.08,SW,222,0.0,0.0,94,0.00,,---,0.01,VWS V14.01,2013-01-13 02:31:00,
2013-01-12 21:33:00,67.8,66.0,30.08,SW,222,0.0,0.0,94,0.00,,---,0.01,VWS V14.01,2013-01-13 02:33:00,
2013-01-12 21:34:00,67.8,66.0,30.08,SW,222,0.0,0.0,94,0.00,,---,0.01,VWS V14.01,2013-01-13 02:34:00,
2013-01-12 21:36:00,67.7,65.9,30.08,SW,222,0.0,0.0,94,0.00,,---,0.01,VWS V14.01,2013-01-13 02:36:00,
2013-01-12 21:37:00,67.7,65.9,30.08,SW,222,0.0,0.0,94,0.00,,---,0.01,VWS V14.01,2013-01-13 02:37:00,
2013-01-12 21:39:00,67.7,65.9,30.08,SW,223,0.0,0.0,94,0.00,,---,0.01,VWS V14.01,2013-01-13 02:39:00,
2013-01-12 21:40:00,67.6,65.8,30.08,SW,223,0.0,0.0,94,0.00,,---,0.01,VWS V14.01,2013-01-13 02:40:00,
2013-01-12 21:42:00,67.6,65.8,30.08,SW,222,0.0,0.0,94,0.00,,---,0.01,VWS V14.01,2013-01-13 02:42:00,
2013-01-12 21:43:00,67.6,65.8,30.08,SW,223,0.0,0.0,94,0.00,,---,0.01,VWS V14.01,2013-01-13 02:43:00,
2013-01-12 21:44:00,67.6,65.8,30.08,SW,223,0.0,0.0,94,0.00,,---,0.01,VWS V14.01,2013-01-13 02:44:00,
2013-01-12 21:45:00,67.5,65.7,30.08,SW,223,0.0,0.0,94,0.00,,---,0.01,VWS V14.01,2013-01-13 02:45:00,
2013-01-12 21:48:00,67.5,65.7,30.08,SW,223,0.0,0.0,94,0.00,,---,0.01,VWS V14.01,2013-01-13 02:48:00,
2013-01-12 21:49:00,67.5,65.7,30.08,SW,222,0.0,0.0,94,0.00,,---,0.01,VWS V14.01,2013-01-13 02:49:00,
2013-01-12 21:50:00,67.5,65.7,30.08,SW,222,0.0,0.0,94,0.00,,---,0.01,VWS V14.01,2013-01-13 02:50:00,
2013-01-12 21:51:00,67.5,65.7,30.08,SW,223,0.0,0.0,94,0.00,,---,0.01,VWS V14.01,2013-01-13 02:51:00,
2013-01-12 21:54:00,67.4,65.6,30.08,SW,223,0.0,0.0,94,0.00,,---,0.01,VWS V14.01,2013-01-13 02:54:00,
2013-01-12 21:55:00,67.4,65.6,30.08,SW,223,0.0,0.0,94,0.00,,---,0.01,VWS V14.01,2013-01-13 02:55:00,
2013-01-12 21:57:00,67.4,65.6,30.08,SW,222,0.0,0.0,94,0.00,,---,0.01,VWS V14.01,2013-01-13 02:57:00,
2013-01-12 21:58:00,67.3,65.5,30.08,SW,223,0.0,0.0,94,0.00,,---,0.01,VWS V14.01,2013-01-13 02:58:00,
2013-01-12 21:59:00,67.3,65.5,30.08,SW,223,0.0,0.0,94,0.00,,---,0.01,VWS V14.01,2013-01-13 02:59:00,
2013-01-12 22:00:00,67.3,65.5,30.08,SW,223,0.0,0.0,94,0.00,,---,0.01,VWS V14.01,2013-01-13 03:00:00,
2013-01-12 22:03:00,67.2,65.7,30.08,SW,223,0.0,0.0,95,0.00,,---,0.01,VWS V14.01,2013-01-13 03:03:00,
2013-01-12 22:04:00,67.2,65.7,30.08,SW,222,0.0,0.0,95,0.00,,---,0.01,VWS V14.01,2013-01-13 03:04:00,
2013-01-12 22:05:00,67.2,65.7,30.09,SW,223,0.0,0.0,95,0.00,,---,0.01,VWS V14.01,2013-01-13 03:05:00,
2013-01-12 22:06:00,67.2,65.7,30.09,SW,223,0.0,0.0,95,0.00,,---,0.01,VWS V14.01,2013-01-13 03:06:00,
2013-01-12 22:09:00,67.2,65.7,30.08,SW,223,0.0,0.0,95,0.00,,---,0.01,VWS V14.01,2013-01-13 03:09:00,
2013-01-12 22:10:00,67.1,65.6,30.08,SW,223,0.0,0.0,95,0.00,,---,0.01,VWS V14.01,2013-01-13 03:10:00,
2013-01-12 22:11:00,67.1,65.6,30.08,SW,222,0.0,0.0,95,0.00,,---,0.01,VWS V14.01,2013-01-13 03:11:00,
2013-01-12 22:14:00,67.0,65.5,30.08,SW,223,0.0,0.0,95,0.00,,---,0.01,VWS V14.01,2013-01-13 03:14:00,
2013-01-12 22:15:00,67.0,65.5,30.08,SW,223,0.0,0.0,95,0.00,,---,0.01,VWS V14.01,2013-01-13 03:15:00,
2013-01-12 22:18:00,66.9,65.4,30.08,SW,222,0.0,0.0,95,0.00,,---,0.01,VWS V14.01,2013-01-13 03:18:00,
2013-01-12 22:20:00,66.9,65.4,30.09,SW,223,0.0,0.0,95,0.00,,---,0.01,VWS V14.01,2013-01-13 03:20:00,
2013-01-12 22:24:00,66.8,65.3,30.09,SW,223,0.0,0.0,95,0.00,,---,0.01,VWS V14.01,2013-01-13 03:24:00,
2013-01-12 22:25:00,66.8,65.3,30.09,SW,223,0.0,0.0,95,0.00,,---,0.01,VWS V14.01,2013-01-13 03:25:00,
2013-01-12 22:27:00,66.8,65.3,30.09,SW,222,0.0,0.0,95,0.00,,---,0.01,VWS V14.01,2013-01-13 03:27:00,
2013-01-12 22:30:00,66.8,65.3,30.09,SW,223,0.0,0.0,95,0.00,,---,0.01,VWS V14.01,2013-01-13 03:30:00,
2013-01-12 22:31:00,66.8,65.3,30.09,SW,223,0.0,0.0,95,0.00,,---,0.01,VWS V14.01,2013-01-13 03:31:00,
2013-01-12 22:33:00,66.7,65.2,30.09,SW,222,0.0,0.0,95,0.00,,---,0.01,VWS V14.01,2013-01-13 03:33:00,
2013-01-12 22:36:00,66.7,65.2,30.09,SW,223,0.0,0.0,95,0.00,,---,0.01,VWS V14.01,2013-01-13 03:36:00,
2013-01-12 22:37:00,66.6,65.1,30.09,SW,223,0.0,0.0,95,0.00,,---,0.01,VWS V14.01,2013-01-13 03:37:00,
2013-01-12 22:38:00,66.6,65.1,30.09,SW,223,0.0,0.0,95,0.00,,---,0.01,VWS V14.01,2013-01-13 03:38:00,
2013-01-12 22:41:00,66.5,65.0,30.09,SW,222,0.0,0.0,95,0.00,,---,0.01,VWS V14.01,2013-01-13 03:41:00,
2013-01-12 22:42:00,66.5,65.0,30.09,SW,223,0.0,0.0,95,0.00,,---,0.01,VWS V14.01,2013-01-13 03:42:00,
2013-01-12 22:43:00,66.5,65.0,30.09,SW,222,0.0,0.0,95,0.00,,---,0.01,VWS V14.01,2013-01-13 03:43:00,
2013-01-12 22:44:00,66.5,65.3,30.09,SW,223,0.0,0.0,96,0.00,,---,0.01,VWS V14.01,2013-01-13 03:44:00,
2013-01-12 22:47:00,66.6,65.4,30.09,SW,223,0.0,0.0,96,0.00,,---,0.01,VWS V14.01,2013-01-13 03:47:00,
2013-01-12 22:49:00,66.5,65.3,30.09,SW,223,0.0,0.0,96,0.00,,---,0.01,VWS V14.01,2013-01-13 03:49:00,
2013-01-12 22:50:00,66.5,65.3,30.09,SW,223,0.0,0.0,96,0.00,,---,0.01,VWS V14.01,2013-01-13 03:50:00,
2013-01-12 22:55:00,66.5,65.3,30.09,SW,222,0.0,0.0,96,0.00,,---,0.01,VWS V14.01,2013-01-13 03:55:00,
2013-01-12 22:56:00,66.5,65.3,30.09,SW,223,0.0,0.0,96,0.00,,---,0.01,VWS V14.01,2013-01-13 03:56:00,
2013-01-12 23:00:00,66.6,65.4,30.09,SW,223,0.0,0.0,96,0.00,,---,0.01,VWS V14.01,2013-01-13 04:00:00,
2013-01-12 23:01:00,66.6,65.4,30.09,SW,223,0.0,0.0,96,0.00,,---,0.01,VWS V14.01,2013-01-13 04:01:00,
2013-01-12 23:06:00,66.6,65.4,30.09,SW,223,0.0,0.0,96,0.00,,---,0.01,VWS V14.01,2013-01-13 04:06:00,
2013-01-12 23:07:00,66.6,65.4,30.09,SW,223,0.0,0.0,96,0.00,,---,0.01,VWS V14.01,2013-01-13 04:07:00,
2013-01-12 23:11:00,66.6,65.4,30.09,South,184,1.0,2.0,96,0.00,,---,0.01,VWS V14.01,2013-01-13 04:11:00,
2013-01-12 23:12:00,66.6,65.7,30.09,South,177,2.0,2.0,97,0.00,,---,0.01,VWS V14.01,2013-01-13 04:12:00,
2013-01-12 23:13:00,66.7,65.8,30.09,South,177,1.0,2.0,97,0.00,,---,0.01,VWS V14.01,2013-01-13 04:13:00,
2013-01-12 23:17:00,67.0,66.1,30.09,SSE,159,2.0,2.0,97,0.00,,---,0.01,VWS V14.01,2013-01-13 04:17:00,
2013-01-12 23:18:00,67.0,66.1,30.09,SSE,159,1.0,2.0,97,0.00,,---,0.01,VWS V14.01,2013-01-13 04:18:00,
2013-01-12 23:19:00,67.1,66.2,30.08,SSE,159,0.0,2.0,97,0.00,,---,0.01,VWS V14.01,2013-01-13 04:19:00,
2013-01-12 23:22:00,67.3,66.4,30.09,SSE,155,1.0,2.0,97,0.00,,---,0.01,VWS V14.01,2013-01-13 04:22:00,
2013-01-12 23:23:00,67.3,66.4,30.09,SSE,155,0.0,2.0,97,0.00,,---,0.01,VWS V14.01,2013-01-13 04:23:00,
2013-01-12 23:25:00,67.4,66.2,30.09,SSE,155,0.0,2.0,96,0.00,,---,0.01,VWS V14.01,2013-01-13 04:25:00,
2013-01-12 23:28:00,67.5,66.3,30.09,East,86,1.0,5.0,96,0.00,,---,0.01,VWS V14.01,2013-01-13 04:28:00,
2013-01-12 23:29:00,67.5,66.3,30.09,East,86,1.0,5.0,96,0.00,,---,0.01,VWS V14.01,2013-01-13 04:29:00,
2013-01-12 23:30:00,67.5,66.3,30.09,East,80,1.0,5.0,96,0.00,,---,0.01,VWS V14.01,2013-01-13 04:30:00,
2013-01-12 23:32:00,67.5,66.3,30.09,East,100,1.0,3.0,96,0.00,,---,0.01,VWS V14.01,2013-01-13 04:32:00,
2013-01-12 23:35:00,67.5,66.0,30.09,ESE,103,0.0,3.0,95,0.00,,---,0.01,VWS V14.01,2013-01-13 04:35:00,
2013-01-12 23:36:00,67.5,66.0,30.09,ESE,103,1.0,2.0,95,0.00,,---,0.01,VWS V14.01,2013-01-13 04:36:00,
2013-01-12 23:37:00,67.5,66.0,30.09,ESE,103,1.0,2.0,95,0.00,,---,0.01,VWS V14.01,2013-01-13 04:37:00,
2013-01-12 23:40:00,67.5,66.0,30.09,ESE,110,1.0,4.0,95,0.00,,---,0.01,VWS V14.01,2013-01-13 04:40:00,
2013-01-12 23:41:00,67.6,66.1,30.09,ESE,110,1.0,1.0,95,0.00,,---,0.01,VWS V14.01,2013-01-13 04:41:00,
2013-01-12 23:42:00,67.6,66.1,30.09,ESE,110,0.0,1.0,95,0.00,,---,0.01,VWS V14.01,2013-01-13 04:42:00,
2013-01-12 23:43:00,67.6,65.8,30.09,ENE,77,0.0,4.0,94,0.00,,---,0.01,VWS V14.01,2013-01-13 04:43:00,
2013-01-12 23:46:00,67.6,65.8,30.09,East,80,0.0,4.0,94,0.00,,---,0.01,VWS V14.01,2013-01-13 04:46:00,
2013-01-12 23:47:00,67.6,65.8,30.09,East,80,1.0,1.0,94,0.00,,---,0.01,VWS V14.01,2013-01-13 04:47:00,
2013-01-12 23:49:00,67.7,65.6,30.09,East,80,0.0,1.0,93,0.00,,---,0.01,VWS V14.01,2013-01-13 04:49:00,
2013-01-12 23:51:00,67.7,65.6,30.09,ENE,76,0.0,0.0,93,0.00,,---,0.01,VWS V14.01,2013-01-13 04:51:00,
2013-01-12 23:53:00,67.7,65.6,30.09,ENE,76,1.0,1.0,93,0.00,,---,0.01,VWS V14.01,2013-01-13 04:53:00,
2013-01-12 23:54:00,67.8,65.7,30.09,East,80,0.0,3.0,93,0.00,,---,0.01,VWS V14.01,2013-01-13 04:54:00,
2013-01-12 23:56:00,67.8,65.4,30.09,East,80,0.0,0.0,92,0.00,,---,0.01,VWS V14.01,2013-01-13 04:56:00,
2013-01-12 23:58:00,67.8,65.4,30.09,East,80,1.0,1.0,92,0.00,,---,0.01,VWS V14.01,2013-01-13 04:58:00,